M I D A S
Marine Information and Data Acquisition System
Tripno 1779 of the Zeeleeuw from 2009-09-17 06:40:37 to 2009-09-17 13:40:42
Back to CruiseResearch ActivitiesStationsMapUnderway DataData graphs

EquipmentUnitsComment
TimeDGPSUTC
LatitudeDGPSDM.mWGS84
LongitudeDGPSDM.mWGS84
TemperatureSBE03/SBE38deg celciusITS90
ConductivitySBE21S/mITS90
SalinitySBE21 Practical Salinity Units
ChlorophylAChelsea fluorimeterg/lCalibrated in Aceton
Missing or incorrect values are displayed as -999
Sea surface data collected by the RV Zeeleeuw from 2009-09-17 06:42:19 to 2009-09-17 13:50:49
                                                                                    Next 1000 lines
Time Latitude Longitude Temperature Conductivity Salinity ChlorophylA
2009-09-17 06:42:29 51°13.663 2°55.952 20.0252 0.031197 0.166261 36.087049
2009-09-17 06:42:33 51°13.664 2°55.949 20.0407 0.031197 0.166311 36.087049
2009-09-17 06:42:38 51°13.664 2°55.946 20.0316 0.031197 0.166319 36.087049
2009-09-17 06:42:44 51°13.665 2°55.941 20.0415 0.031197 0.166319 36.087049
2009-09-17 06:42:50 51°13.666 2°55.935 20.0336 0.031197 0.166313 36.087049
2009-09-17 06:42:56 51°13.668 2°55.929 20.0331 0.031197 0.166313 36.087049
2009-09-17 06:43:01 51°13.669 2°55.923 20.0385 0.031197 0.166311 36.087049
2009-09-17 06:43:07 51°13.671 2°55.916 20.0421 0.031197 0.166305 36.087049
2009-09-17 06:43:12 51°13.672 2°55.91 20.0402 0.031197 0.166297 36.052225
2009-09-17 06:43:17 51°13.674 2°55.903 20.0495 0.031197 0.166294 36.052225
2009-09-17 06:43:22 51°13.675 2°55.896 20.0441 0.031197 0.166292 36.052225
2009-09-17 06:43:27 51°13.677 2°55.888 20.0406 0.031197 0.166292 36.052225
2009-09-17 06:43:32 51°13.679 2°55.881 20.0313 0.031197 0.166292 36.052225
2009-09-17 06:43:37 51°13.681 2°55.873 20.0392 0.031197 0.166286 36.052225
2009-09-17 06:43:42 51°13.683 2°55.865 20.0402 0.031197 0.166289 36.017401
2009-09-17 06:43:47 51°13.685 2°55.857 20.0467 0.031197 0.166289 36.052225
2009-09-17 06:43:52 51°13.688 2°55.849 20.0545 0.031197 0.166292 36.017401
2009-09-17 06:43:57 51°13.691 2°55.842 20.0551 0.031197 0.166292 36.017401
2009-09-17 06:44:02 51°13.694 2°55.834 20.0541 0.031197 0.166294 36.017401
2009-09-17 06:44:07 51°13.696 2°55.826 20.0543 0.031197 0.166294 36.017401
2009-09-17 06:44:12 51°13.698 2°55.818 20.0295 0.031197 0.166292 36.017401
2009-09-17 06:44:17 51°13.701 2°55.811 20.0413 0.031197 0.166292 36.017401
2009-09-17 06:44:23 51°13.704 2°55.801 20.0441 0.031197 0.166292 36.017401
2009-09-17 06:44:27 51°13.707 2°55.795 20.0498 0.031197 0.166292 36.017401
2009-09-17 06:44:32 51°13.71 2°55.787 20.0454 0.031197 0.166292 36.017401
2009-09-17 06:44:37 51°13.714 2°55.779 20.0558 0.031197 0.166294 35.982577
2009-09-17 06:44:42 51°13.718 2°55.771 20.0536 0.031197 0.166297 35.982577
2009-09-17 06:44:47 51°13.722 2°55.764 20.0572 0.031197 0.166297 35.982577
2009-09-17 06:44:52 51°13.726 2°55.756 20.0576 0.031197 0.1663 35.982577
2009-09-17 06:44:57 51°13.731 2°55.749 20.0583 0.031197 0.1663 35.982577
2009-09-17 06:45:02 51°13.735 2°55.741 20.0585 0.031197 0.1663 35.982577
2009-09-17 06:45:07 51°13.74 2°55.734 20.0542 0.031197 0.1663 36.017401
2009-09-17 06:45:12 51°13.745 2°55.727 20.0667 0.031197 0.166303 35.982577
2009-09-17 06:45:17 51°13.749 2°55.721 20.0732 0.031197 0.166303 35.982577
2009-09-17 06:45:22 51°13.754 2°55.716 20.0656 0.031197 0.166297 35.982577
2009-09-17 06:45:27 51°13.758 2°55.711 20.0772 0.031197 0.166297 35.982577
2009-09-17 06:45:32 51°13.761 2°55.708 20.0476 0.031197 0.1663 35.982577
2009-09-17 06:45:37 51°13.764 2°55.705 20.0309 0.031197 0.166308 35.947753
2009-09-17 06:45:42 51°13.767 2°55.701 20.0071 0.031197 0.166319 35.982577
2009-09-17 06:45:47 51°13.771 2°55.698 20.0368 0.031197 0.166322 35.947753
2009-09-17 06:45:52 51°13.774 2°55.694 20.0051 0.031197 0.166316 35.947753
2009-09-17 06:45:57 51°13.778 2°55.69 20.0154 0.031197 0.166316 35.947753
2009-09-17 06:46:02 51°13.782 2°55.686 20.0153 0.031197 0.166316 35.947753
2009-09-17 06:46:07 51°13.787 2°55.681 20.027 0.031197 0.166316 35.947753
2009-09-17 06:46:12 51°13.791 2°55.677 20.0403 0.031197 0.166316 35.947753
2009-09-17 06:46:17 51°13.796 2°55.673 20.0414 0.031197 0.166319 35.947753
2009-09-17 06:46:22 51°13.801 2°55.668 20.04 0.031197 0.166319 35.947753
2009-09-17 06:46:27 51°13.806 2°55.663 20.0361 0.031197 0.166319 35.947753
2009-09-17 06:46:32 51°13.812 2°55.659 20.0336 0.031197 0.166319 35.947753
2009-09-17 06:46:37 51°13.817 2°55.654 20.0341 0.031197 0.166322 35.947753
2009-09-17 06:46:43 51°13.823 2°55.648 20.0363 0.031197 0.166324 35.912929
2009-09-17 06:46:47 51°13.828 2°55.644 20.0519 0.031197 0.166324 35.912929
2009-09-17 06:46:52 51°13.833 2°55.639 20.0473 0.031197 0.166322 35.912929
2009-09-17 06:46:57 51°13.839 2°55.634 20.0569 0.031197 0.166322 35.912929
2009-09-17 06:47:03 51°13.846 2°55.628 20.0548 0.031197 0.166324 35.912929
2009-09-17 06:47:07 51°13.85 2°55.623 20.0551 0.031197 0.166324 35.912929
2009-09-17 06:47:12 51°13.856 2°55.619 20.0558 0.031197 0.166322 35.912929
2009-09-17 06:47:17 51°13.862 2°55.614 20.0622 0.031197 0.166324 35.912929
2009-09-17 06:47:22 51°13.867 2°55.611 20.0705 0.031197 0.166324 35.912929
2009-09-17 06:47:27 51°13.873 2°55.607 20.0589 0.031197 0.166324 35.912929
2009-09-17 06:47:32 51°13.878 2°55.604 20.0729 0.031197 0.166322 35.878105
2009-09-17 06:47:37 51°13.884 2°55.602 20.0721 0.031197 0.166319 35.878105
2009-09-17 06:47:42 51°13.889 2°55.6 20.0738 0.031197 0.166322 35.878105
2009-09-17 06:47:47 51°13.894 2°55.599 20.0618 0.031197 0.166324 35.878105
2009-09-17 06:47:52 51°13.899 2°55.598 20.0536 0.031197 0.166324 35.878105
2009-09-17 06:47:57 51°13.904 2°55.597 20.0699 0.031197 0.166324 35.878105
2009-09-17 06:48:02 51°13.909 2°55.597 20.0582 0.031197 0.166324 35.878105
2009-09-17 06:48:07 51°13.914 2°55.598 20.0622 0.031197 0.16633 35.878105
2009-09-17 06:48:12 51°13.918 2°55.598 20.0609 0.031197 0.16633 35.878105
2009-09-17 06:48:17 51°13.922 2°55.599 20.0467 0.031197 0.16633 35.878105
2009-09-17 06:48:22 51°13.926 2°55.601 20.0599 0.031197 0.16633 35.878105
2009-09-17 06:48:27 51°13.929 2°55.602 20.0711 0.031197 0.16633 35.878105
2009-09-17 06:48:32 51°13.933 2°55.604 20.0666 0.031197 0.166333 35.843281
2009-09-17 06:48:37 51°13.936 2°55.605 20.0544 0.031197 0.166335 35.843281
2009-09-17 06:48:43 51°13.939 2°55.608 20.0568 0.031197 0.166338 35.843281
2009-09-17 06:48:47 51°13.941 2°55.609 20.0551 0.031197 0.166338 35.843281
2009-09-17 06:48:52 51°13.943 2°55.61 20.0477 0.031197 0.166333 35.843281
2009-09-17 06:48:57 51°13.945 2°55.612 20.0653 0.031197 0.166333 35.843281
2009-09-17 06:49:02 51°13.947 2°55.613 20.0695 0.031197 0.166333 35.843281
2009-09-17 06:49:07 51°13.948 2°55.613 20.0637 0.031197 0.166335 35.843281
2009-09-17 06:49:12 51°13.949 2°55.613 20.0713 0.031197 0.166335 35.843281
2009-09-17 06:49:17 51°13.949 2°55.613 20.0695 0.031197 0.166338 35.843281
2009-09-17 06:49:22 51°13.95 2°55.612 20.054 0.031197 0.166341 35.843281
2009-09-17 06:49:27 51°13.949 2°55.61 20.0302 0.031197 0.166341 35.843281
2009-09-17 06:49:32 51°13.949 2°55.608 20.0449 0.031197 0.166335 35.843281
2009-09-17 06:49:36 51°13.949 2°55.606 20.0131 0.031197 0.166335 35.808457
2009-09-17 06:49:41 51°13.949 2°55.603 19.9863 0.031197 0.166341 35.843281
2009-09-17 06:49:46 51°13.949 2°55.599 19.9767 0.031197 0.166346 35.808457
2009-09-17 06:49:51 51°13.948 2°55.595 19.9759 0.031197 0.16636 35.808457
2009-09-17 06:49:56 51°13.949 2°55.59 19.953 0.031197 0.16636 35.808457
2009-09-17 06:50:01 51°13.949 2°55.584 19.927 0.031197 0.166368 35.808457
2009-09-17 06:50:06 51°13.95 2°55.579 20.0067 0.031197 0.166388 35.808457
2009-09-17 06:50:11 51°13.951 2°55.573 19.9713 0.031197 0.166399 35.808457
2009-09-17 06:50:16 51°13.953 2°55.568 19.9838 0.031197 0.16641 35.808457
2009-09-17 06:50:21 51°13.955 2°55.562 19.9597 0.031197 0.166421 35.808457
2009-09-17 06:50:25 51°13.957 2°55.557 19.9188 0.031197 0.166421 35.808457
2009-09-17 06:50:31 51°13.96 2°55.551 19.9731 0.031197 0.166429 35.773633
2009-09-17 06:50:36 51°13.964 2°55.545 20.0092 0.031197 0.166432 35.808457
2009-09-17 06:50:41 51°13.968 2°55.54 20.0272 0.031197 0.166421 35.773633
2009-09-17 06:50:45 51°13.972 2°55.535 20.029 0.031197 0.166423 35.808457
2009-09-17 06:50:50 51°13.978 2°55.53 20.0457 0.031197 0.166423 35.808457
2009-09-17 06:50:56 51°13.986 2°55.523 20.024 0.031197 0.166423 35.808457
2009-09-17 06:51:00 51°13.992 2°55.518 20.0138 0.031197 0.166423 35.773633
2009-09-17 06:51:05 51°14 2°55.511 20.0205 0.031197 0.166426 35.773633
2009-09-17 06:51:10 51°14.008 2°55.503 20.0356 0.031197 0.166429 35.808457
2009-09-17 06:51:15 51°14.017 2°55.495 20.034 0.031197 0.166437 35.773633
2009-09-17 06:51:20 51°14.026 2°55.487 20.027 0.031197 0.166429 35.773633
2009-09-17 06:51:25 51°14.036 2°55.479 20.0237 0.031197 0.166429 35.773633
2009-09-17 06:51:30 51°14.046 2°55.47 20.0058 0.031197 0.16644 35.773633
2009-09-17 06:51:35 51°14.057 2°55.461 19.9767 0.031197 0.166448 35.773633
2009-09-17 06:51:40 51°14.068 2°55.451 20 0.031197 0.166451 35.773633
2009-09-17 06:51:45 51°14.079 2°55.441 19.9706 0.031197 0.166456 35.738808
2009-09-17 06:51:49 51°14.088 2°55.434 20.0194 0.031197 0.166467 35.773633
2009-09-17 06:51:55 51°14.103 2°55.422 19.9796 0.031197 0.166467 35.773633
2009-09-17 06:52:00 51°14.115 2°55.412 20.0094 0.031197 0.166478 35.738808
2009-09-17 06:52:04 51°14.124 2°55.404 19.9863 0.031197 0.166478 35.738808
2009-09-17 06:52:09 51°14.136 2°55.393 19.9812 0.031197 0.166476 35.738808
2009-09-17 06:52:14 51°14.148 2°55.382 20.0219 0.031197 0.166476 35.773633
2009-09-17 06:52:19 51°14.16 2°55.371 19.9854 0.031197 0.166487 35.703984
2009-09-17 06:52:24 51°14.171 2°55.359 19.9813 0.031197 0.166487 35.703984
2009-09-17 06:52:29 51°14.182 2°55.347 19.9799 0.031197 0.166503 35.738808
2009-09-17 06:52:34 51°14.194 2°55.334 19.9857 0.031197 0.166523 35.738808
2009-09-17 06:52:39 51°14.205 2°55.321 19.9879 0.031197 0.166542 35.703984
2009-09-17 06:52:44 51°14.216 2°55.308 19.9952 0.031197 0.166578 35.738808
2009-09-17 06:52:49 51°14.226 2°55.294 19.9723 0.031197 0.166597 35.703984
2009-09-17 06:52:54 51°14.236 2°55.279 19.981 0.031197 0.166597 35.703984
2009-09-17 06:52:59 51°14.246 2°55.264 19.9697 0.031197 0.16658 35.66916
2009-09-17 06:53:04 51°14.256 2°55.248 19.9429 0.031197 0.166602 35.738808
2009-09-17 06:53:09 51°14.265 2°55.232 19.941 0.031197 0.166619 35.634336
2009-09-17 06:53:13 51°14.272 2°55.218 19.9189 0.031197 0.166605 35.66916
2009-09-17 06:53:18 51°14.282 2°55.2 19.9783 0.031197 0.166625 35.634336
2009-09-17 06:53:24 51°14.292 2°55.179 19.9369 0.031197 0.166625 35.634336
2009-09-17 06:53:29 51°14.302 2°55.16 19.9158 0.031197 0.166674 35.703984
2009-09-17 06:53:33 51°14.309 2°55.145 19.9506 0.031197 0.166705 35.703984
2009-09-17 06:53:39 51°14.32 2°55.123 19.9341 0.031197 0.16676 35.634336
2009-09-17 06:53:44 51°14.33 2°55.104 19.9281 0.031197 0.16681 35.66916
2009-09-17 06:53:49 51°14.339 2°55.086 19.924 0.031197 0.166912 35.66916
2009-09-17 06:53:53 51°14.346 2°55.07 19.9406 0.031197 0.166912 35.66916
2009-09-17 06:53:58 51°14.355 2°55.05 19.9245 0.031197 0.167067 35.634336
2009-09-17 06:54:04 51°14.365 2°55.027 19.9167 0.031197 0.167181 35.634336
2009-09-17 06:54:09 51°14.373 2°55.008 19.9601 0.0313 0.167879 35.634336
2009-09-17 06:54:13 51°14.379 2°54.992 19.9521 0.0313 0.168008 35.66916
2009-09-17 06:54:18 51°14.387 2°54.973 19.9024 0.0313 0.168072 35.564688
2009-09-17 06:54:24 51°14.396 2°54.951 19.9323 0.0313 0.168072 35.564688
2009-09-17 06:54:29 51°14.404 2°54.932 19.9236 0.0313 0.168069 35.634336
2009-09-17 06:54:34 51°14.413 2°54.914 19.9045 0.031197 0.167505 35.634336
2009-09-17 06:54:39 51°14.422 2°54.896 19.8942 0.031197 0.167474 35.564688
2009-09-17 06:54:44 51°14.432 2°54.879 19.9176 0.031197 0.167516 35.599512
2009-09-17 06:54:48 51°14.44 2°54.865 19.8972 0.031197 0.16755 35.599512
2009-09-17 06:54:54 51°14.452 2°54.844 19.9134 0.031197 0.16755 35.599512
2009-09-17 06:54:59 51°14.463 2°54.827 19.9267 0.031197 0.167586 35.599512
2009-09-17 06:55:04 51°14.473 2°54.811 19.9331 0.031197 0.167623 35.564688
2009-09-17 06:55:08 51°14.482 2°54.798 19.9446 0.031197 0.167676 35.634336
2009-09-17 06:55:14 51°14.495 2°54.779 19.9138 0.031197 0.167768 35.564688
2009-09-17 06:55:19 51°14.507 2°54.764 19.9028 0.031197 0.167749 35.599512
2009-09-17 06:55:24 51°14.518 2°54.749 19.9244 0.031197 0.167749 35.599512
2009-09-17 06:55:28 51°14.528 2°54.737 19.9133 0.031197 0.167732 35.599512
2009-09-17 06:55:34 51°14.541 2°54.717 19.94 0.031197 0.167732 35.529864
2009-09-17 06:55:39 51°14.553 2°54.703 19.9426 0.031197 0.167723 35.599512
2009-09-17 06:55:44 51°14.564 2°54.688 19.8929 0.031402 0.16888 35.460216
2009-09-17 06:55:48 51°14.572 2°54.675 19.9163 0.0313 0.168348 35.564688
2009-09-17 06:55:53 51°14.583 2°54.66 19.9191 0.0313 0.168348 35.564688
2009-09-17 06:55:59 51°14.597 2°54.641 19.8986 0.0313 0.168368 35.529864
2009-09-17 06:56:04 51°14.608 2°54.626 19.8928 0.0313 0.168393 35.529864
2009-09-17 06:56:09 51°14.619 2°54.609 19.9299 0.0313 0.16839 35.529864
2009-09-17 06:56:13 51°14.628 2°54.597 19.921 0.0313 0.168393 35.564688
2009-09-17 06:56:18 51°14.64 2°54.582 19.9241 0.0313 0.168385 35.529864
2009-09-17 06:56:24 51°14.653 2°54.564 19.9092 0.0313 0.168385 35.529864
2009-09-17 06:56:29 51°14.665 2°54.549 19.9007 0.0313 0.168393 35.529864
2009-09-17 06:56:33 51°14.674 2°54.537 19.9229 0.0313 0.168402 35.49504
2009-09-17 06:56:38 51°14.686 2°54.522 19.9241 0.0313 0.16841 35.529864
2009-09-17 06:56:44 51°14.7 2°54.504 19.9239 0.0313 0.168404 35.49504
2009-09-17 06:56:49 51°14.712 2°54.489 19.905 0.031197 0.167839 35.529864
2009-09-17 06:56:53 51°14.721 2°54.478 19.9192 0.031197 0.167839 35.529864
2009-09-17 06:56:58 51°14.733 2°54.464 19.9257 0.031197 0.167839 35.49504
2009-09-17 06:57:04 51°14.748 2°54.447 19.9239 0.031197 0.167855 35.49504
2009-09-17 06:57:09 51°14.759 2°54.432 19.9145 0.031197 0.167867 35.529864
2009-09-17 06:57:13 51°14.769 2°54.421 19.9204 0.031197 0.167903 35.460216
2009-09-17 06:57:18 51°14.781 2°54.407 19.908 0.031197 0.167912 35.460216
2009-09-17 06:57:24 51°14.795 2°54.39 19.912 0.031197 0.167912 35.460216
2009-09-17 06:57:28 51°14.805 2°54.378 19.9013 0.031197 0.167915 35.49504
2009-09-17 06:57:33 51°14.817 2°54.364 19.9036 0.031197 0.167915 35.49504
2009-09-17 06:57:39 51°14.831 2°54.347 19.9202 0.031197 0.16792 35.425392
2009-09-17 06:57:44 51°14.844 2°54.334 19.926 0.031197 0.167906 35.460216
2009-09-17 06:57:48 51°14.853 2°54.322 19.9218 0.031197 0.167917 35.425392
2009-09-17 06:57:53 51°14.865 2°54.308 19.9075 0.031197 0.167917 35.425392
2009-09-17 06:57:59 51°14.879 2°54.292 19.9015 0.0313 0.168509 35.529864
2009-09-17 06:58:04 51°14.892 2°54.279 19.9233 0.031402 0.169047 36.052225
2009-09-17 06:58:08 51°14.901 2°54.268 19.9216 0.031402 0.169047 41.624074
2009-09-17 06:58:13 51°14.913 2°54.254 19.8953 0.0313 0.168506 41.624074
2009-09-17 06:58:18 51°14.924 2°54.24 19.9062 0.0313 0.16852 41.310657
2009-09-17 06:58:24 51°14.938 2°54.223 19.9281 0.0313 0.16852 41.310657
2009-09-17 06:58:29 51°14.951 2°54.212 19.9087 0.031711 0.170786 40.788296
2009-09-17 06:58:33 51°14.96 2°54.201 19.9293 0.031505 0.169684 40.579352
2009-09-17 06:58:38 51°14.973 2°54.19 19.9285 0.031505 0.169659 40.47488
2009-09-17 06:58:44 51°14.987 2°54.175 19.9023 0.031608 0.170191 40.196287
2009-09-17 06:58:49 51°14.999 2°54.163 19.9114 0.031505 0.169636 40.091815
2009-09-17 06:58:53 51°15.009 2°54.154 19.9351 0.031505 0.169636 40.091815
2009-09-17 06:58:58 51°15.021 2°54.142 19.9034 0.031505 0.169661 39.882871
2009-09-17 06:59:04 51°15.036 2°54.128 19.9073 0.031402 0.169092 39.708751
2009-09-17 06:59:09 51°15.048 2°54.116 19.922 0.031402 0.169103 39.499806
2009-09-17 06:59:13 51°15.057 2°54.107 19.9231 0.031402 0.169115 39.395334
2009-09-17 06:59:18 51°15.069 2°54.095 19.9016 0.031402 0.169106 39.256038
2009-09-17 06:59:24 51°15.084 2°54.081 19.9328 0.031402 0.169106 39.256038
2009-09-17 06:59:29 51°15.096 2°54.07 19.9307 0.031402 0.169109 38.420261
2009-09-17 06:59:33 51°15.105 2°54.062 19.9149 0.031402 0.169129 38.350613
2009-09-17 06:59:38 51°15.117 2°54.051 19.9262 0.031505 0.16971 38.280964
2009-09-17 06:59:44 51°15.131 2°54.038 19.9023 0.031608 0.170268 38.211316
2009-09-17 06:59:49 51°15.143 2°54.027 19.9065 0.031505 0.169718 38.350613
2009-09-17 06:59:53 51°15.152 2°54.018 19.9302 0.031505 0.169718 38.350613
2009-09-17 06:59:58 51°15.164 2°54.008 19.9234 0.031505 0.16971 38.420261
2009-09-17 07:00:04 51°15.178 2°53.994 19.9055 0.031402 0.16914 38.385437
2009-09-17 07:00:09 51°15.19 2°53.983 19.9237 0.031402 0.169132 38.176492
2009-09-17 07:00:13 51°15.199 2°53.973 19.9202 0.031505 0.169707 38.07202
2009-09-17 07:00:18 51°15.212 2°53.963 19.9307 0.031505 0.169727 37.863076
2009-09-17 07:00:24 51°15.226 2°53.95 19.9269 0.031505 0.169727 37.863076
2009-09-17 07:00:29 51°15.239 2°53.94 19.9163 0.031402 0.169166 37.793428
2009-09-17 07:00:33 51°15.248 2°53.931 19.9153 0.031402 0.169174 37.72378
2009-09-17 07:00:38 51°15.261 2°53.92 19.9221 0.031402 0.16916 37.758604
2009-09-17 07:00:44 51°15.276 2°53.907 19.926 0.0313 0.168588 37.863076
2009-09-17 07:00:49 51°15.288 2°53.895 19.9178 0.0313 0.168605 37.967548
2009-09-17 07:00:54 51°15.301 2°53.885 19.9349 0.0313 0.168605 37.967548
2009-09-17 07:00:58 51°15.311 2°53.875 19.9228 0.0313 0.168605 38.07202
2009-09-17 07:01:04 51°15.326 2°53.861 19.9233 0.0313 0.168605 38.280964
2009-09-17 07:01:09 51°15.338 2°53.85 19.91 0.031402 0.169166 38.385437
2009-09-17 07:01:14 51°15.351 2°53.838 19.9326 0.031402 0.169177 38.698853
2009-09-17 07:01:18 51°15.36 2°53.829 19.9322 0.031402 0.169163 38.907797
2009-09-17 07:01:24 51°15.375 2°53.815 19.9333 0.031402 0.169163 38.907797
2009-09-17 07:01:29 51°15.387 2°53.803 19.9367 0.031402 0.169177 39.116742
2009-09-17 07:01:34 51°15.399 2°53.791 19.9143 0.031402 0.16918 39.290862
2009-09-17 07:01:38 51°15.408 2°53.781 19.9171 0.031402 0.169189 39.464982
2009-09-17 07:01:44 51°15.423 2°53.767 19.9172 0.031402 0.169191 39.708751
2009-09-17 07:01:48 51°15.433 2°53.757 19.9332 0.031402 0.169191 39.952519
2009-09-17 07:01:54 51°15.448 2°53.743 19.9274 0.031402 0.169191 39.952519
2009-09-17 07:01:59 51°15.46 2°53.731 19.9223 0.0313 0.168639 40.196287
2009-09-17 07:02:04 51°15.473 2°53.718 19.9247 0.0313 0.168619 40.405232
2009-09-17 07:02:08 51°15.483 2°53.709 19.9193 0.0313 0.168628 40.614176
2009-09-17 07:02:13 51°15.495 2°53.696 19.9289 0.031402 0.1692 40.82312
2009-09-17 07:02:19 51°15.51 2°53.682 19.9236 0.031402 0.169206 41.066889
2009-09-17 07:02:24 51°15.522 2°53.67 19.9401 0.031402 0.169206 41.066889
2009-09-17 07:02:29 51°15.535 2°53.658 19.9395 0.031402 0.169194 41.275833
2009-09-17 07:02:33 51°15.545 2°53.648 19.9405 0.031402 0.169197 41.519601
2009-09-17 07:02:39 51°15.559 2°53.633 19.9241 0.0313 0.168656 41.76337
2009-09-17 07:02:44 51°15.571 2°53.621 19.9371 0.0313 0.168656 41.972314
2009-09-17 07:02:49 51°15.584 2°53.61 19.9367 0.0313 0.168653 42.181258
2009-09-17 07:02:53 51°15.593 2°53.6 19.926 0.0313 0.168653 42.181258
2009-09-17 07:02:59 51°15.608 2°53.585 19.9318 0.031402 0.169228 42.459851
2009-09-17 07:03:04 51°15.62 2°53.573 19.939 0.031402 0.169237 42.599147
2009-09-17 07:03:09 51°15.633 2°53.561 19.9433 0.031505 0.16979 42.842915
2009-09-17 07:03:13 51°15.642 2°53.552 19.925 0.031505 0.169787 43.05186
2009-09-17 07:03:18 51°15.654 2°53.54 19.9285 0.031402 0.169245 43.260804
2009-09-17 07:03:24 51°15.669 2°53.526 19.9378 0.031402 0.169245 43.260804
2009-09-17 07:03:29 51°15.682 2°53.513 19.9423 0.031402 0.169251 43.365276
2009-09-17 07:03:33 51°15.691 2°53.503 19.9399 0.031402 0.16926 43.469748
2009-09-17 07:03:38 51°15.704 2°53.49 19.9382 0.0313 0.168707 43.643869
2009-09-17 07:03:44 51°15.718 2°53.475 19.9381 0.0313 0.168696 43.852813
2009-09-17 07:03:49 51°15.731 2°53.461 19.9387 0.0313 0.168698 43.992109
2009-09-17 07:03:54 51°15.743 2°53.448 19.9404 0.0313 0.168698 43.992109
2009-09-17 07:03:59 51°15.755 2°53.436 19.938 0.031402 0.169271 44.201054
2009-09-17 07:04:04 51°15.768 2°53.425 19.942 0.031402 0.169271 44.409998
2009-09-17 07:04:09 51°15.78 2°53.413 19.9414 0.031402 0.169265 44.584118
2009-09-17 07:04:14 51°15.793 2°53.402 19.9446 0.031402 0.169263 44.723414
2009-09-17 07:04:19 51°15.805 2°53.391 19.937 0.031711 0.170941 44.201054
2009-09-17 07:04:24 51°15.818 2°53.382 19.9452 0.031711 0.170941 44.201054
2009-09-17 07:04:28 51°15.828 2°53.374 19.9468 0.031917 0.172059 44.305526
2009-09-17 07:04:33 51°15.842 2°53.365 19.9384 0.031608 0.170374 44.584118
2009-09-17 07:04:39 51°15.857 2°53.354 19.9486 0.031711 0.170944 44.897535
2009-09-17 07:04:44 51°15.87 2°53.344 19.9371 0.031711 0.170959 45.106479
2009-09-17 07:04:48 51°15.881 2°53.337 19.9521 0.032123 0.173213 45.280599
2009-09-17 07:04:53 51°15.894 2°53.328 19.9507 0.032123 0.173213 45.280599
2009-09-17 07:04:59 51°15.909 2°53.318 19.9399 0.031711 0.170953 45.419895
2009-09-17 07:05:04 51°15.923 2°53.31 19.9543 0.031608 0.170374 45.62884
2009-09-17 07:05:08 51°15.933 2°53.304 19.9588 0.031814 0.171497 45.768136
2009-09-17 07:05:13 51°15.946 2°53.295 19.9551 0.031711 0.170941 45.350247
2009-09-17 07:05:18 51°15.959 2°53.288 19.939 0.031608 0.170386 45.002007
2009-09-17 07:05:24 51°15.975 2°53.277 19.9594 0.031608 0.170386 45.002007
2009-09-17 07:05:29 51°15.988 2°53.269 19.9438 0.031505 0.169844 45.489544
2009-09-17 07:05:33 51°15.998 2°53.261 19.9571 0.031505 0.169855 45.524368
2009-09-17 07:05:38 51°16.011 2°53.252 19.9576 0.031402 0.169305 45.62884
2009-09-17 07:05:44 51°16.026 2°53.241 19.9455 0.031505 0.16987 45.594016
2009-09-17 07:05:49 51°16.039 2°53.232 19.9514 0.031505 0.169873 45.62884
2009-09-17 07:05:53 51°16.049 2°53.225 19.9479 0.031505 0.169873 45.62884
2009-09-17 07:05:58 51°16.062 2°53.215 19.9485 0.031402 0.169319 45.698488
2009-09-17 07:06:04 51°16.077 2°53.205 19.9494 0.031505 0.169867 45.733312
2009-09-17 07:06:09 51°16.09 2°53.195 19.9593 0.031505 0.169867 45.698488
2009-09-17 07:06:13 51°16.101 2°53.187 19.9492 0.031608 0.170426 45.663664
2009-09-17 07:06:18 51°16.113 2°53.178 19.9461 0.031608 0.170437 45.698488
2009-09-17 07:06:24 51°16.128 2°53.166 19.9496 0.031608 0.170437 45.698488
2009-09-17 07:06:28 51°16.138 2°53.159 19.9427 0.031711 0.171022 45.768136
2009-09-17 07:06:33 51°16.15 2°53.15 19.9551 0.031608 0.170451 45.385071
2009-09-17 07:06:38 51°16.163 2°53.14 19.9625 0.031917 0.172123 44.967183
2009-09-17 07:06:44 51°16.177 2°53.129 19.9644 0.031505 0.169878 44.444822
2009-09-17 07:06:49 51°16.19 2°53.12 19.9717 0.031608 0.170443 44.026933
2009-09-17 07:06:53 51°16.2 2°53.113 19.9637 0.031608 0.170443 44.026933
2009-09-17 07:06:59 51°16.214 2°53.103 19.9522 0.031711 0.171008 43.678693
2009-09-17 07:07:04 51°16.227 2°53.094 19.957 0.031505 0.169887 43.574221
2009-09-17 07:07:09 51°16.239 2°53.085 19.9548 0.031402 0.169334 43.4001
2009-09-17 07:07:13 51°16.249 2°53.079 19.9611 0.031402 0.169342 42.703619
2009-09-17 07:07:19 51°16.264 2°53.068 19.9599 0.031814 0.171593 42.738443
2009-09-17 07:07:24 51°16.277 2°53.06 19.9655 0.031814 0.171593 42.738443
2009-09-17 07:07:29 51°16.29 2°53.051 19.97 0.031505 0.169913 42.599147
2009-09-17 07:07:33 51°16.3 2°53.043 19.9695 0.031402 0.169339 42.425027
2009-09-17 07:07:38 51°16.313 2°53.034 19.9583 0.031505 0.169904 42.285731
2009-09-17 07:07:44 51°16.329 2°53.023 19.9587 0.031505 0.169907 42.216082
2009-09-17 07:07:49 51°16.341 2°53.013 19.9727 0.031608 0.170469 42.11161
2009-09-17 07:07:53 51°16.351 2°53.007 19.9731 0.031608 0.170469 42.11161
2009-09-17 07:07:58 51°16.364 2°52.997 19.9713 0.031711 0.171028 42.007138
2009-09-17 07:08:04 51°16.379 2°52.988 19.9715 0.031505 0.169924 42.007138
2009-09-17 07:08:09 51°16.391 2°52.979 19.9667 0.031402 0.169362 41.972314
2009-09-17 07:08:13 51°16.402 2°52.972 19.9698 0.031402 0.169356 41.93749
2009-09-17 07:08:18 51°16.414 2°52.962 19.9716 0.031402 0.169354 42.007138
2009-09-17 07:08:24 51°16.43 2°52.951 19.9722 0.031402 0.169354 42.007138
2009-09-17 07:08:29 51°16.442 2°52.942 19.9741 0.0313 0.168809 42.041962
2009-09-17 07:08:33 51°16.453 2°52.935 19.9713 0.0313 0.168809 42.11161
2009-09-17 07:08:38 51°16.466 2°52.926 19.9734 0.0313 0.16882 42.216082
2009-09-17 07:08:44 51°16.481 2°52.915 19.9696 0.0313 0.168809 42.250907
2009-09-17 07:08:49 51°16.494 2°52.907 19.9654 0.0313 0.168795 42.390203
2009-09-17 07:08:53 51°16.504 2°52.899 19.9793 0.0313 0.168795 42.390203
2009-09-17 07:08:58 51°16.518 2°52.891 19.9654 0.031402 0.169354 42.076786
2009-09-17 07:09:04 51°16.532 2°52.88 19.9753 0.031402 0.169362 42.181258
2009-09-17 07:09:09 51°16.545 2°52.872 19.9728 0.031402 0.169365 42.494675
2009-09-17 07:09:13 51°16.555 2°52.865 19.9715 0.031402 0.169382 42.738443
2009-09-17 07:09:18 51°16.568 2°52.857 19.9813 0.0313 0.168826 42.842915
2009-09-17 07:09:24 51°16.584 2°52.847 19.9814 0.0313 0.168826 42.842915
2009-09-17 07:09:29 51°16.596 2°52.839 19.9762 0.031402 0.169391 42.947388
2009-09-17 07:09:33 51°16.606 2°52.832 19.979 0.0313 0.168843 43.05186
2009-09-17 07:09:38 51°16.619 2°52.824 19.9745 0.0313 0.168843 43.086684
2009-09-17 07:09:44 51°16.634 2°52.813 19.9864 0.031402 0.169391 43.22598
2009-09-17 07:09:49 51°16.647 2°52.805 19.9797 0.0313 0.168835 43.017036
2009-09-17 07:09:54 51°16.66 2°52.797 19.9763 0.0313 0.168835 43.017036
2009-09-17 07:09:59 51°16.673 2°52.789 19.9872 0.0313 0.168843 43.086684
2009-09-17 07:10:04 51°16.686 2°52.781 19.9831 0.0313 0.168849 43.156332
2009-09-17 07:10:09 51°16.698 2°52.772 19.9885 0.031505 0.169978 43.295628
2009-09-17 07:10:14 51°16.71 2°52.763 19.9795 0.031402 0.169413 43.365276
2009-09-17 07:10:19 51°16.722 2°52.754 19.9828 0.031505 0.169978 43.504572
2009-09-17 07:10:24 51°16.735 2°52.746 19.9925 0.031505 0.169978 43.504572
2009-09-17 07:10:29 51°16.747 2°52.737 19.9863 0.031608 0.170543 43.574221
2009-09-17 07:10:33 51°16.757 2°52.731 19.9805 0.031402 0.169433 43.713517
2009-09-17 07:10:38 51°16.77 2°52.722 19.9873 0.03202 0.172784 43.783165
2009-09-17 07:10:44 51°16.785 2°52.713 19.9862 0.031917 0.172222 43.4001
2009-09-17 07:10:49 51°16.797 2°52.704 19.994 0.031711 0.171117 43.539397
2009-09-17 07:10:54 51°16.808 2°52.697 19.9933 0.031711 0.171117 43.539397
2009-09-17 07:10:59 51°16.82 2°52.689 19.9866 0.031711 0.171123 43.434924
2009-09-17 07:11:04 51°16.832 2°52.682 19.9875 0.031608 0.170569 43.191156
2009-09-17 07:11:09 51°16.844 2°52.673 19.9987 0.031505 0.170004 42.738443
2009-09-17 07:11:14 51°16.856 2°52.666 19.9903 0.031505 0.170001 42.668795
2009-09-17 07:11:19 51°16.868 2°52.658 19.9875 0.031608 0.170566 42.599147
2009-09-17 07:11:24 51°16.88 2°52.65 19.9961 0.031608 0.170566 42.599147
2009-09-17 07:11:29 51°16.893 2°52.641 19.9936 0.031505 0.170013 42.425027
2009-09-17 07:11:33 51°16.903 2°52.635 19.996 0.031505 0.170021 42.320555
2009-09-17 07:11:39 51°16.918 2°52.625 20.007 0.031814 0.171703 42.320555
2009-09-17 07:11:44 51°16.93 2°52.617 19.9881 0.031505 0.17001 42.285731
2009-09-17 07:11:49 51°16.943 2°52.609 19.9901 0.031505 0.169998 42.320555
2009-09-17 07:11:53 51°16.953 2°52.602 19.9974 0.031505 0.169998 42.320555
2009-09-17 07:11:59 51°16.968 2°52.592 20.0076 0.031402 0.169436 42.355379
2009-09-17 07:12:04 51°16.98 2°52.584 19.9987 0.031402 0.169448 42.703619
2009-09-17 07:12:09 51°16.993 2°52.575 19.9958 0.031402 0.169465 42.982212
2009-09-17 07:12:13 51°17.003 2°52.569 19.9967 0.031402 0.169459 43.05186
2009-09-17 07:12:18 51°17.016 2°52.561 20.0035 0.031402 0.169451 43.191156
2009-09-17 07:12:24 51°17.031 2°52.551 20.0011 0.031402 0.169451 43.191156
2009-09-17 07:12:29 51°17.043 2°52.544 20.0021 0.031402 0.169462 43.22598
2009-09-17 07:12:33 51°17.054 2°52.538 20.0038 0.031402 0.169468 43.330452
2009-09-17 07:12:38 51°17.067 2°52.531 20.0091 0.031402 0.169462 43.434924
2009-09-17 07:12:44 51°17.082 2°52.522 19.9981 0.031711 0.17114 43.4001
2009-09-17 07:12:49 51°17.095 2°52.515 20.003 0.031711 0.171137 42.633971
2009-09-17 07:12:54 51°17.108 2°52.508 20.0052 0.031711 0.171137 42.633971
2009-09-17 07:12:59 51°17.12 2°52.502 20.0058 0.032637 0.17621 42.912564
2009-09-17 07:13:04 51°17.133 2°52.497 20.0049 0.031711 0.171181 42.877739
2009-09-17 07:13:08 51°17.143 2°52.492 20.0038 0.032432 0.175101 42.947388
2009-09-17 07:13:14 51°17.159 2°52.487 20.0125 0.031608 0.170584 42.877739
2009-09-17 07:13:19 51°17.171 2°52.483 20.0108 0.031608 0.170575 42.842915
2009-09-17 07:13:24 51°17.184 2°52.479 20.0127 0.031608 0.170575 42.842915
2009-09-17 07:13:28 51°17.195 2°52.476 20.0142 0.031505 0.170013 42.808091
2009-09-17 07:13:34 51°17.211 2°52.472 20.0129 0.031608 0.170589 42.842915
2009-09-17 07:13:39 51°17.224 2°52.469 20.0142 0.031608 0.170592 42.912564
2009-09-17 07:13:44 51°17.237 2°52.466 20.0065 0.031711 0.171157 42.912564
2009-09-17 07:13:48 51°17.247 2°52.464 20.0105 0.031505 0.170044 42.947388
2009-09-17 07:13:53 51°17.261 2°52.462 20.0072 0.031505 0.170044 42.947388
2009-09-17 07:13:59 51°17.276 2°52.46 20.0187 0.031402 0.169505 43.05186
2009-09-17 07:14:04 51°17.289 2°52.46 20.011 0.031814 0.171752 43.086684
2009-09-17 07:14:08 51°17.3 2°52.459 20.0162 0.031608 0.170618 43.121508
2009-09-17 07:14:13 51°17.313 2°52.459 20.0176 0.031505 0.170044 43.191156
2009-09-17 07:14:19 51°17.329 2°52.459 20.0178 0.031402 0.169473 43.22598
2009-09-17 07:14:24 51°17.342 2°52.458 20.0169 0.031402 0.169473 43.22598
2009-09-17 07:14:29 51°17.355 2°52.458 20.0202 0.0313 0.168923 43.330452
2009-09-17 07:14:33 51°17.365 2°52.458 20.0182 0.0313 0.168937 43.330452
2009-09-17 07:14:38 51°17.378 2°52.459 20.0172 0.0313 0.168937 43.365276
2009-09-17 07:14:44 51°17.394 2°52.458 20.0248 0.031608 0.170641 43.469748
2009-09-17 07:14:49 51°17.407 2°52.458 20.0247 0.031402 0.169513 43.504572
2009-09-17 07:14:53 51°17.417 2°52.459 20.0182 0.031402 0.169513 43.504572
2009-09-17 07:14:58 51°17.43 2°52.459 20.0286 0.031608 0.170632 43.574221
2009-09-17 07:15:04 51°17.446 2°52.459 20.0285 0.031402 0.169499 43.609045
2009-09-17 07:15:09 51°17.459 2°52.459 20.0247 0.031402 0.169508 43.678693
2009-09-17 07:15:13 51°17.469 2°52.459 20.0232 0.031402 0.16951 43.713517
2009-09-17 07:15:18 51°17.482 2°52.459 20.0275 0.0313 0.168957 43.748341
2009-09-17 07:15:24 51°17.498 2°52.458 20.0316 0.0313 0.168957 43.748341
2009-09-17 07:15:28 51°17.508 2°52.458 20.0292 0.0313 0.168962 43.783165
2009-09-17 07:15:33 51°17.521 2°52.458 20.0279 0.031505 0.17009 43.852813
2009-09-17 07:15:38 51°17.534 2°52.458 20.0271 0.031505 0.170093 43.887637
2009-09-17 07:15:44 51°17.55 2°52.458 20.0283 0.031402 0.16953 44.061757
2009-09-17 07:15:49 51°17.562 2°52.458 20.0341 0.031402 0.169528 44.34035
2009-09-17 07:15:54 51°17.575 2°52.457 20.0329 0.031402 0.169528 44.34035
2009-09-17 07:15:59 51°17.588 2°52.457 20.0337 0.031402 0.169539 44.34035
2009-09-17 07:16:04 51°17.601 2°52.456 20.0316 0.031505 0.170104 44.375174
2009-09-17 07:16:09 51°17.614 2°52.456 20.0316 0.031402 0.169533 44.375174
2009-09-17 07:16:13 51°17.625 2°52.456 20.0341 0.031814 0.171772 44.305526
2009-09-17 07:16:19 51°17.64 2°52.457 20.0313 0.031402 0.169533 44.270702
2009-09-17 07:16:24 51°17.653 2°52.456 20.031 0.031402 0.169533 44.270702
2009-09-17 07:16:29 51°17.666 2°52.458 20.0302 0.031711 0.17123 44.34035
2009-09-17 07:16:33 51°17.676 2°52.459 20.0342 0.031505 0.17009 44.305526
2009-09-17 07:16:38 51°17.688 2°52.46 20.0316 0.031505 0.170087 44.270702
2009-09-17 07:16:44 51°17.704 2°52.462 20.033 0.031402 0.169525 44.305526
2009-09-17 07:16:49 51°17.716 2°52.463 20.0431 0.0313 0.168968 44.305526
2009-09-17 07:16:53 51°17.726 2°52.464 20.0397 0.0313 0.168968 44.305526
2009-09-17 07:16:58 51°17.738 2°52.466 20.0358 0.0313 0.168988 44.305526
2009-09-17 07:17:04 51°17.754 2°52.467 20.0403 0.0313 0.168991 44.305526
2009-09-17 07:17:09 51°17.766 2°52.468 20.0432 0.0313 0.168991 44.34035
2009-09-17 07:17:13 51°17.777 2°52.47 20.0373 0.0313 0.168991 44.305526
2009-09-17 07:17:18 51°17.789 2°52.47 20.0392 0.031197 0.168437 44.375174
2009-09-17 07:17:24 51°17.805 2°52.473 20.0471 0.031197 0.168437 44.375174
2009-09-17 07:17:29 51°17.817 2°52.473 20.0388 0.031197 0.168434 44.375174
2009-09-17 07:17:33 51°17.828 2°52.475 20.0397 0.031197 0.168446 44.34035
2009-09-17 07:17:38 51°17.84 2°52.475 20.044 0.03202 0.172927 44.305526
2009-09-17 07:17:44 51°17.855 2°52.478 20.0517 0.031402 0.169573 44.34035
2009-09-17 07:17:49 51°17.868 2°52.478 20.0511 0.031402 0.16957 44.270702
2009-09-17 07:17:53 51°17.878 2°52.48 20.0441 0.031402 0.16957 44.270702
2009-09-17 07:17:58 51°17.89 2°52.482 20.0432 0.031402 0.169568 44.305526
2009-09-17 07:18:04 51°17.905 2°52.486 20.0428 0.031402 0.169582 44.305526
2009-09-17 07:18:09 51°17.917 2°52.487 20.0438 0.03202 0.172951 44.201054
2009-09-17 07:18:13 51°17.927 2°52.49 20.0532 0.031505 0.170153 43.017036
2009-09-17 07:18:18 51°17.939 2°52.492 20.0581 0.031711 0.17127 43.330452
2009-09-17 07:18:24 51°17.953 2°52.496 20.0491 0.031711 0.17127 43.330452
2009-09-17 07:18:29 51°17.965 2°52.498 20.0513 0.031505 0.170147 43.469748
2009-09-17 07:18:34 51°17.977 2°52.501 20.0552 0.031505 0.170144 43.469748
2009-09-17 07:18:39 51°17.989 2°52.504 20.0587 0.031402 0.16959 43.574221
2009-09-17 07:18:44 51°18.001 2°52.506 20.0585 0.031402 0.169585 43.678693
2009-09-17 07:18:49 51°18.012 2°52.509 20.0578 0.032123 0.173526 43.643869
2009-09-17 07:18:53 51°18.022 2°52.513 20.0544 0.032123 0.173526 43.643869
2009-09-17 07:18:58 51°18.033 2°52.518 20.058 0.031505 0.170167 43.713517
2009-09-17 07:19:04 51°18.047 2°52.525 20.0612 0.032123 0.173526 43.713517
2009-09-17 07:19:09 51°18.058 2°52.532 20.0586 0.031917 0.172428 43.713517
2009-09-17 07:19:13 51°18.066 2°52.539 20.0596 0.031402 0.169602 43.643869
2009-09-17 07:19:18 51°18.077 2°52.547 20.0566 0.031608 0.170716 43.643869
2009-09-17 07:19:24 51°18.089 2°52.56 20.0615 0.031608 0.170716 43.643869
2009-09-17 07:19:29 51°18.099 2°52.569 20.0641 0.031402 0.16959 43.574221
2009-09-17 07:19:34 51°18.109 2°52.58 20.0612 0.031402 0.169593 43.574221
2009-09-17 07:19:39 51°18.119 2°52.59 20.0632 0.0313 0.169042 43.609045
2009-09-17 07:19:44 51°18.128 2°52.602 20.0615 0.031814 0.171859 43.609045
2009-09-17 07:19:49 51°18.136 2°52.616 20.0682 0.031505 0.170193 43.574221
2009-09-17 07:19:54 51°18.144 2°52.63 20.0716 0.031505 0.170193 43.574221
2009-09-17 07:19:59 51°18.152 2°52.645 20.0638 0.032329 0.174667 43.504572
2009-09-17 07:20:04 51°18.159 2°52.66 20.0659 0.031608 0.170736 43.504572
2009-09-17 07:20:08 51°18.165 2°52.672 20.065 0.031505 0.170162 43.504572
2009-09-17 07:20:14 51°18.174 2°52.691 20.069 0.031402 0.169602 43.609045
2009-09-17 07:20:19 51°18.18 2°52.707 20.0671 0.031402 0.169602 43.574221
2009-09-17 07:20:24 51°18.187 2°52.724 20.0643 0.031402 0.169602 43.574221
2009-09-17 07:20:28 51°18.193 2°52.737 20.0662 0.0313 0.169056 43.574221
2009-09-17 07:20:33 51°18.199 2°52.754 20.071 0.0313 0.169065 43.504572
2009-09-17 07:20:39 51°18.207 2°52.774 20.0685 0.0313 0.169071 43.469748
2009-09-17 07:20:44 51°18.213 2°52.791 20.0698 0.0313 0.169068 43.504572
2009-09-17 07:20:48 51°18.219 2°52.805 20.073 0.0313 0.169065 43.434924
2009-09-17 07:20:53 51°18.225 2°52.823 20.0792 0.0313 0.169065 43.434924
2009-09-17 07:20:59 51°18.232 2°52.842 20.0736 0.032123 0.173558 43.4001
2009-09-17 07:21:04 51°18.238 2°52.86 20.0723 0.031402 0.16963 43.469748
2009-09-17 07:21:08 51°18.243 2°52.873 20.0789 0.031402 0.169625 43.4001
2009-09-17 07:21:13 51°18.249 2°52.891 20.0783 0.0313 0.169062 43.4001
2009-09-17 07:21:18 51°18.256 2°52.908 20.0842 0.0313 0.169079 43.365276
2009-09-17 07:21:24 51°18.263 2°52.929 20.0801 0.0313 0.169079 43.365276
2009-09-17 07:21:29 51°18.27 2°52.945 20.0829 0.031814 0.171882 43.260804
2009-09-17 07:21:33 51°18.274 2°52.959 20.0751 0.031402 0.169656 43.260804
2009-09-17 07:21:38 51°18.282 2°52.975 20.0792 0.032329 0.174712 43.22598
2009-09-17 07:21:44 51°18.289 2°52.996 20.0766 0.031917 0.172463 43.156332
2009-09-17 07:21:49 51°18.296 2°53.013 20.0808 0.031505 0.170216 43.22598
2009-09-17 07:21:53 51°18.301 2°53.027 20.0807 0.031505 0.170216 43.22598
2009-09-17 07:21:58 51°18.308 2°53.044 20.089 0.031402 0.169645 43.295628
2009-09-17 07:22:04 51°18.316 2°53.064 20.0831 0.0313 0.169082 43.22598
2009-09-17 07:22:09 51°18.323 2°53.081 20.0807 0.0313 0.169073 43.22598
2009-09-17 07:22:13 51°18.328 2°53.096 20.0827 0.0313 0.169076 43.191156
2009-09-17 07:22:18 51°18.335 2°53.112 20.0878 0.031197 0.168522 43.156332
2009-09-17 07:22:24 51°18.343 2°53.133 20.0859 0.031197 0.168522 43.156332
2009-09-17 07:22:29 51°18.35 2°53.15 20.089 0.031197 0.168514 43.191156
2009-09-17 07:22:33 51°18.355 2°53.164 20.0905 0.031197 0.168508 43.191156
2009-09-17 07:22:38 51°18.362 2°53.181 20.0915 0.031197 0.168505 43.191156
2009-09-17 07:22:44 51°18.371 2°53.201 20.0927 0.031197 0.168525 43.156332
2009-09-17 07:22:49 51°18.378 2°53.218 20.0916 0.031608 0.170776 43.086684
2009-09-17 07:22:53 51°18.383 2°53.231 20.0969 0.031608 0.170776 43.086684
2009-09-17 07:22:59 51°18.391 2°53.252 20.0933 0.031505 0.170239 43.086684
2009-09-17 07:23:04 51°18.398 2°53.268 20.0927 0.031402 0.169662 43.086684
2009-09-17 07:23:09 51°18.405 2°53.286 20.0915 0.0313 0.169093 43.086684
2009-09-17 07:23:13 51°18.41 2°53.3 20.0841 0.0313 0.169088 43.086684
2009-09-17 07:23:19 51°18.418 2°53.32 20.0898 0.0313 0.169085 43.121508
2009-09-17 07:23:24 51°18.425 2°53.338 20.0906 0.0313 0.169085 43.121508
2009-09-17 07:23:29 51°18.432 2°53.355 20.0901 0.031197 0.168522 43.05186
2009-09-17 07:23:33 51°18.437 2°53.368 20.0896 0.031197 0.168536 43.017036
2009-09-17 07:23:38 51°18.444 2°53.386 20.0942 0.031197 0.168551 43.017036
2009-09-17 07:23:44 51°18.451 2°53.407 20.0954 0.031197 0.168545 42.982212
2009-09-17 07:23:49 51°18.458 2°53.425 20.102 0.031402 0.169679 42.947388
2009-09-17 07:23:53 51°18.462 2°53.44 20.0974 0.031402 0.169679 42.947388
2009-09-17 07:23:58 51°18.469 2°53.457 20.0942 0.031197 0.168571 42.982212
2009-09-17 07:24:04 51°18.476 2°53.478 20.0963 0.031197 0.168556 42.982212
2009-09-17 07:24:09 51°18.483 2°53.496 20.104 0.031197 0.168551 42.982212
2009-09-17 07:24:13 51°18.488 2°53.509 20.0959 0.031197 0.168548 42.947388
2009-09-17 07:24:18 51°18.495 2°53.526 20.0988 0.031197 0.168551 42.947388
2009-09-17 07:24:24 51°18.503 2°53.547 20.1055 0.031197 0.168551 42.947388
2009-09-17 07:24:29 51°18.509 2°53.565 20.0982 0.031197 0.168576 42.947388
2009-09-17 07:24:33 51°18.514 2°53.579 20.0981 0.031197 0.168573 42.912564
2009-09-17 07:24:38 51°18.521 2°53.596 20.1041 0.031197 0.168565 42.912564
2009-09-17 07:24:44 51°18.528 2°53.617 20.1029 0.031094 0.168008 42.912564
2009-09-17 07:24:49 51°18.535 2°53.634 20.1012 0.031197 0.168562 42.912564
2009-09-17 07:24:53 51°18.541 2°53.648 20.106 0.031197 0.168562 42.912564
2009-09-17 07:24:58 51°18.547 2°53.665 20.1099 0.031094 0.167996 42.912564
2009-09-17 07:25:04 51°18.555 2°53.687 20.1123 0.031094 0.168016 42.912564
2009-09-17 07:25:09 51°18.562 2°53.703 20.1152 0.031094 0.168011 42.982212
2009-09-17 07:25:13 51°18.567 2°53.718 20.1152 0.031505 0.170262 42.912564
2009-09-17 07:25:19 51°18.574 2°53.738 20.1076 0.031402 0.169691 42.877739
2009-09-17 07:25:24 51°18.582 2°53.754 20.1114 0.031402 0.169691 42.877739
2009-09-17 07:25:29 51°18.588 2°53.772 20.1068 0.0313 0.169128 42.877739
2009-09-17 07:25:33 51°18.593 2°53.786 20.1136 0.0313 0.169122 42.877739
2009-09-17 07:25:39 51°18.6 2°53.807 20.1116 0.031197 0.168573 42.877739
2009-09-17 07:25:44 51°18.606 2°53.824 20.114 0.031197 0.168568 42.877739
2009-09-17 07:25:49 51°18.612 2°53.841 20.1104 0.031197 0.168565 42.842915
2009-09-17 07:25:54 51°18.618 2°53.859 20.1158 0.031197 0.168565 42.842915
2009-09-17 07:25:58 51°18.623 2°53.874 20.1137 0.031197 0.168568 42.842915
2009-09-17 07:26:04 51°18.63 2°53.895 20.1169 0.031197 0.168579 42.808091
2009-09-17 07:26:09 51°18.636 2°53.913 20.1135 0.031094 0.168022 42.842915
2009-09-17 07:26:14 51°18.642 2°53.93 20.1212 0.031197 0.168582 42.842915
2009-09-17 07:26:19 51°18.647 2°53.949 20.1208 0.031094 0.168039 42.808091
2009-09-17 07:26:24 51°18.653 2°53.967 20.119 0.031094 0.168039 42.808091
2009-09-17 07:26:29 51°18.657 2°53.986 20.113 0.0313 0.16915 42.808091
2009-09-17 07:26:34 51°18.663 2°54.004 20.114 0.031608 0.17086 42.808091
2009-09-17 07:26:39 51°18.667 2°54.024 20.1182 0.031402 0.169742 42.808091
2009-09-17 07:26:44 51°18.672 2°54.042 20.1213 0.0313 0.169145 42.842915
2009-09-17 07:26:48 51°18.676 2°54.058 20.1236 0.031197 0.168585 42.773267
2009-09-17 07:26:54 51°18.681 2°54.081 20.126 0.031197 0.168585 42.773267
2009-09-17 07:26:59 51°18.686 2°54.1 20.1238 0.031402 0.169713 42.773267
2009-09-17 07:27:04 51°18.691 2°54.119 20.1248 0.0313 0.169162 42.842915
2009-09-17 07:27:08 51°18.694 2°54.134 20.1285 0.031402 0.169751 42.808091
2009-09-17 07:27:13 51°18.698 2°54.154 20.1169 0.0313 0.169188 42.773267
2009-09-17 07:27:19 51°18.704 2°54.177 20.1239 0.033049 0.178752 42.773267
2009-09-17 07:27:24 51°18.708 2°54.197 20.122 0.033049 0.178752 42.773267
2009-09-17 07:27:29 51°18.714 2°54.216 20.1262 0.03202 0.173141 42.773267
2009-09-17 07:27:34 51°18.717 2°54.236 20.1333 0.03202 0.173135 42.738443
2009-09-17 07:27:39 51°18.721 2°54.255 20.1319 0.031608 0.170846 42.773267
2009-09-17 07:27:44 51°18.726 2°54.274 20.1293 0.031505 0.170279 42.738443
2009-09-17 07:27:49 51°18.73 2°54.293 20.1299 0.031402 0.169719 42.773267
2009-09-17 07:27:53 51°18.734 2°54.309 20.133 0.031402 0.169719 42.773267
2009-09-17 07:27:58 51°18.738 2°54.328 20.1349 0.031402 0.169725 42.11161
2009-09-17 07:28:04 51°18.743 2°54.351 20.1343 0.031402 0.169756 41.171361
2009-09-17 07:28:09 51°18.748 2°54.369 20.1345 0.031402 0.169745 41.519601
2009-09-17 07:28:13 51°18.751 2°54.385 20.1306 0.0313 0.169179 41.658898
2009-09-17 07:28:18 51°18.756 2°54.404 20.1367 0.031505 0.170328 41.76337
2009-09-17 07:28:24 51°18.761 2°54.427 20.1324 0.031505 0.170328 41.76337
2009-09-17 07:28:29 51°18.766 2°54.446 20.1369 0.031402 0.169759 41.658898
2009-09-17 07:28:33 51°18.769 2°54.462 20.1341 0.031402 0.169751 41.798194
2009-09-17 07:28:38 51°18.774 2°54.48 20.1372 0.0313 0.169188 41.867842
2009-09-17 07:28:44 51°18.779 2°54.503 20.1381 0.0313 0.169185 41.902666
2009-09-17 07:28:49 51°18.784 2°54.522 20.1396 0.0313 0.169188 41.902666
2009-09-17 07:28:54 51°18.789 2°54.541 20.1359 0.0313 0.169188 41.902666
2009-09-17 07:28:59 51°18.792 2°54.561 20.1381 0.031505 0.170323 41.972314
2009-09-17 07:29:04 51°18.798 2°54.58 20.1421 0.031402 0.169751 41.972314
2009-09-17 07:29:09 51°18.802 2°54.6 20.1402 0.0313 0.169182 42.007138
2009-09-17 07:29:14 51°18.806 2°54.619 20.1372 0.0313 0.169179 41.972314
2009-09-17 07:29:19 51°18.811 2°54.638 20.1418 0.0313 0.169182 41.972314
2009-09-17 07:29:24 51°18.815 2°54.658 20.1482 0.0313 0.169182 41.972314
2009-09-17 07:29:28 51°18.818 2°54.673 20.1508 0.031197 0.168616 41.867842
2009-09-17 07:29:34 51°18.824 2°54.696 20.1509 0.031197 0.168619 41.624074
2009-09-17 07:29:39 51°18.828 2°54.716 20.1528 0.031197 0.168613 41.833018
2009-09-17 07:29:44 51°18.833 2°54.735 20.1511 0.031197 0.168625 41.902666
2009-09-17 07:29:48 51°18.836 2°54.751 20.1483 0.031197 0.16863 41.972314
2009-09-17 07:29:53 51°18.841 2°54.77 20.1565 0.031197 0.16863 41.972314
2009-09-17 07:29:59 51°18.846 2°54.793 20.1464 0.031402 0.169762 41.93749
2009-09-17 07:30:04 51°18.85 2°54.812 20.1453 0.0313 0.16919 41.972314
2009-09-17 07:30:09 51°18.854 2°54.831 20.1417 0.0313 0.169188 41.902666
2009-09-17 07:30:13 51°18.858 2°54.846 20.1473 0.032637 0.176505 41.902666
2009-09-17 07:30:19 51°18.863 2°54.869 20.1472 0.031608 0.1709 41.972314
2009-09-17 07:30:24 51°18.868 2°54.888 20.1548 0.031608 0.1709 41.972314
2009-09-17 07:30:29 51°18.872 2°54.907 20.1557 0.031814 0.172019 41.972314
2009-09-17 07:30:33 51°18.876 2°54.922 20.1553 0.03202 0.17315 41.972314
2009-09-17 07:30:38 51°18.88 2°54.942 20.1482 0.031711 0.171499 41.972314
2009-09-17 07:30:44 51°18.886 2°54.964 20.1491 0.034798 0.188363 41.972314
2009-09-17 07:30:49 51°18.889 2°54.983 20.154 0.032637 0.176511 42.007138
2009-09-17 07:30:53 51°18.894 2°54.998 20.1524 0.032637 0.176511 42.007138
2009-09-17 07:30:58 51°18.898 2°55.017 20.1531 0.032946 0.1782 42.041962
2009-09-17 07:31:04 51°18.903 2°55.039 20.1533 0.032226 0.174266 42.007138
2009-09-17 07:31:09 51°18.907 2°55.058 20.1619 0.032123 0.173693 42.007138
2009-09-17 07:31:13 51°18.911 2°55.073 20.1623 0.032329 0.174821 42.041962
2009-09-17 07:31:18 51°18.915 2°55.093 20.1636 0.032226 0.174316 42.076786
2009-09-17 07:31:24 51°18.921 2°55.115 20.1613 0.032226 0.174316 42.076786
2009-09-17 07:31:29 51°18.925 2°55.134 20.1643 0.032123 0.173746 42.076786
2009-09-17 07:31:33 51°18.929 2°55.15 20.1605 0.03202 0.173161 42.11161
2009-09-17 07:31:38 51°18.933 2°55.169 20.1677 0.031917 0.172589 42.11161
2009-09-17 07:31:44 51°18.939 2°55.191 20.1656 0.031917 0.172594 42.11161
2009-09-17 07:31:49 51°18.943 2°55.211 20.1636 0.031814 0.172033 42.146434
2009-09-17 07:31:53 51°18.947 2°55.226 20.171 0.031814 0.172033 42.146434
2009-09-17 07:31:58 51°18.952 2°55.245 20.169 0.031917 0.172612 42.11161
2009-09-17 07:32:04 51°18.957 2°55.268 20.168 0.031814 0.172068 42.146434
2009-09-17 07:32:09 51°18.962 2°55.287 20.165 0.034901 0.188959 42.146434
2009-09-17 07:32:13 51°18.965 2°55.302 20.1579 0.033049 0.178819 42.181258
2009-09-17 07:32:19 51°18.971 2°55.325 20.1719 0.032329 0.17486 42.216082
2009-09-17 07:32:24 51°18.975 2°55.344 20.1647 0.032329 0.17486 42.216082
2009-09-17 07:32:29 51°18.98 2°55.363 20.1663 0.035004 0.1895 42.181258
2009-09-17 07:32:34 51°18.985 2°55.381 20.1659 0.033152 0.179366 42.250907
2009-09-17 07:32:38 51°18.988 2°55.396 20.1723 0.034284 0.185578 42.181258
2009-09-17 07:32:44 51°18.994 2°55.418 20.1663 0.032432 0.175439 42.250907
2009-09-17 07:32:49 51°18.998 2°55.437 20.1773 0.032329 0.174872 42.285731
2009-09-17 07:32:54 51°19.002 2°55.456 20.1767 0.032329 0.174872 42.285731
2009-09-17 07:32:58 51°19.006 2°55.47 20.1758 0.032226 0.17431 42.390203
2009-09-17 07:33:04 51°19.011 2°55.493 20.1777 0.032123 0.173752 42.425027
2009-09-17 07:33:09 51°19.016 2°55.512 20.188 0.032123 0.173755 42.529499
2009-09-17 07:33:13 51°19.02 2°55.527 20.1722 0.03202 0.173191 41.380305
2009-09-17 07:33:18 51°19.025 2°55.545 20.1797 0.03202 0.173193 42.11161
2009-09-17 07:33:24 51°19.03 2°55.568 20.1725 0.03202 0.173193 42.11161
2009-09-17 07:33:29 51°19.035 2°55.586 20.1762 0.03202 0.173191 42.216082
2009-09-17 07:33:33 51°19.039 2°55.601 20.1758 0.031917 0.172629 42.146434
2009-09-17 07:33:39 51°19.044 2°55.624 20.1827 0.031917 0.172626 42.216082
2009-09-17 07:33:44 51°19.049 2°55.643 20.1813 0.031917 0.172632 42.285731
2009-09-17 07:33:49 51°19.054 2°55.662 20.1854 0.031814 0.172089 42.773267
2009-09-17 07:33:53 51°19.058 2°55.677 20.1859 0.031814 0.172089 42.773267
2009-09-17 07:33:59 51°19.064 2°55.7 20.1904 0.031814 0.172083 42.738443
2009-09-17 07:34:04 51°19.068 2°55.719 20.1875 0.031814 0.17208 42.703619
2009-09-17 07:34:09 51°19.073 2°55.738 20.1903 0.031814 0.17208 42.703619
2009-09-17 07:34:13 51°19.077 2°55.754 20.191 0.031711 0.171513 42.633971
2009-09-17 07:34:19 51°19.083 2°55.776 20.184 0.031711 0.171522 42.633971
2009-09-17 07:34:24 51°19.088 2°55.796 20.1936 0.031711 0.171522 42.633971
2009-09-17 07:34:29 51°19.093 2°55.815 20.1957 0.031711 0.171525 42.668795
2009-09-17 07:34:33 51°19.096 2°55.83 20.1896 0.031711 0.171536 42.668795
2009-09-17 07:34:39 51°19.102 2°55.853 20.1875 0.03202 0.173255 42.633971
2009-09-17 07:34:44 51°19.106 2°55.872 20.1883 0.031917 0.172676 42.564323
2009-09-17 07:34:49 51°19.11 2°55.891 20.1923 0.031814 0.172109 42.564323
2009-09-17 07:34:53 51°19.114 2°55.906 20.1945 0.031814 0.172109 42.564323
2009-09-17 07:34:59 51°19.119 2°55.929 20.1934 0.033564 0.181671 42.425027
2009-09-17 07:35:04 51°19.125 2°55.948 20.1952 0.03202 0.173267 42.425027
2009-09-17 07:35:09 51°19.129 2°55.966 20.1895 0.031814 0.172112 42.425027
2009-09-17 07:35:14 51°19.134 2°55.985 20.1967 0.032534 0.176042 42.425027
2009-09-17 07:35:19 51°19.139 2°56.004 20.1939 0.031917 0.172673 42.494675
2009-09-17 07:35:24 51°19.144 2°56.022 20.1986 0.031917 0.172673 42.494675
2009-09-17 07:35:29 51°19.148 2°56.042 20.1919 0.031814 0.172106 42.529499
2009-09-17 07:35:34 51°19.154 2°56.061 20.1935 0.03202 0.173226 42.494675
2009-09-17 07:35:39 51°19.158 2°56.08 20.1987 0.031814 0.172112 42.738443
2009-09-17 07:35:44 51°19.164 2°56.098 20.1982 0.031711 0.171545 42.808091
2009-09-17 07:35:49 51°19.169 2°56.117 20.1974 0.031608 0.170984 42.842915
2009-09-17 07:35:54 51°19.174 2°56.137 20.1994 0.031608 0.170984 42.842915
2009-09-17 07:35:59 51°19.179 2°56.155 20.2021 0.031608 0.170984 42.773267
2009-09-17 07:36:04 51°19.184 2°56.174 20.1972 0.031608 0.170978 42.808091
2009-09-17 07:36:09 51°19.189 2°56.193 20.2053 0.031505 0.170429 42.738443
2009-09-17 07:36:14 51°19.194 2°56.212 20.199 0.031505 0.170432 42.738443
2009-09-17 07:36:19 51°19.199 2°56.231 20.2052 0.031505 0.170443 42.738443
2009-09-17 07:36:24 51°19.205 2°56.25 20.1994 0.031505 0.170443 42.738443
2009-09-17 07:36:28 51°19.209 2°56.265 20.2079 0.031505 0.170443 42.773267
2009-09-17 07:36:34 51°19.214 2°56.288 20.2075 0.031505 0.170446 42.738443
2009-09-17 07:36:39 51°19.22 2°56.306 20.2075 0.031505 0.170443 42.738443
2009-09-17 07:36:44 51°19.224 2°56.325 20.2044 0.031608 0.171007 42.668795
2009-09-17 07:36:49 51°19.23 2°56.344 20.2104 0.031608 0.17101 42.668795
2009-09-17 07:36:53 51°19.233 2°56.36 20.2148 0.031608 0.17101 42.668795
2009-09-17 07:36:59 51°19.239 2°56.383 20.215 0.031505 0.170458 42.668795
2009-09-17 07:37:04 51°19.244 2°56.401 20.2183 0.032329 0.174963 42.703619
2009-09-17 07:37:09 51°19.249 2°56.421 20.2166 0.031711 0.171594 42.773267
2009-09-17 07:37:13 51°19.253 2°56.436 20.2203 0.031608 0.171013 42.773267
2009-09-17 07:37:18 51°19.257 2°56.455 20.2143 0.031608 0.171019 42.738443
2009-09-17 07:37:24 51°19.263 2°56.477 20.2166 0.031608 0.171019 42.738443
2009-09-17 07:37:29 51°19.268 2°56.496 20.2182 0.031505 0.170452 42.738443
2009-09-17 07:37:33 51°19.272 2°56.512 20.2181 0.031505 0.170452 42.703619
2009-09-17 07:37:38 51°19.277 2°56.531 20.2155 0.031505 0.170452 42.808091
2009-09-17 07:37:44 51°19.283 2°56.553 20.2192 0.031402 0.169894 42.808091
2009-09-17 07:37:49 51°19.287 2°56.573 20.2244 0.031608 0.17103 42.808091
2009-09-17 07:37:53 51°19.291 2°56.588 20.2233 0.031608 0.17103 42.808091
2009-09-17 07:37:58 51°19.296 2°56.607 20.2213 0.031608 0.171042 42.703619
2009-09-17 07:38:04 51°19.301 2°56.63 20.2252 0.032226 0.174419 42.773267
2009-09-17 07:38:09 51°19.306 2°56.648 20.2207 0.031814 0.172182 42.738443
2009-09-17 07:38:13 51°19.309 2°56.664 20.2269 0.031608 0.171056 42.738443
2009-09-17 07:38:18 51°19.315 2°56.683 20.2239 0.031608 0.171048 42.738443
2009-09-17 07:38:24 51°19.32 2°56.707 20.2304 0.031608 0.171048 42.738443
2009-09-17 07:38:29 51°19.325 2°56.725 20.23 0.031608 0.171036 42.599147
2009-09-17 07:38:34 51°19.33 2°56.744 20.2293 0.032432 0.175519 42.738443
2009-09-17 07:38:39 51°19.335 2°56.763 20.2257 0.031711 0.171577 42.773267
2009-09-17 07:38:44 51°19.339 2°56.782 20.2264 0.031608 0.171013 42.773267
2009-09-17 07:38:49 51°19.344 2°56.801 20.2216 0.032123 0.173849 42.773267
2009-09-17 07:38:54 51°19.348 2°56.82 20.2233 0.032123 0.173849 42.773267
2009-09-17 07:38:59 51°19.354 2°56.837 20.2272 0.031711 0.171594 42.599147
2009-09-17 07:39:04 51°19.358 2°56.857 20.2333 0.032226 0.174425 42.529499
2009-09-17 07:39:09 51°19.363 2°56.875 20.236 0.031608 0.171065 42.564323
2009-09-17 07:39:13 51°19.367 2°56.891 20.2331 0.031711 0.171629 42.529499
2009-09-17 07:39:19 51°19.373 2°56.913 20.2283 0.031608 0.171045 42.564323
2009-09-17 07:39:24 51°19.378 2°56.931 20.2286 0.031608 0.171045 42.564323
2009-09-17 07:39:29 51°19.382 2°56.951 20.2269 0.031505 0.170472 42.599147
2009-09-17 07:39:33 51°19.387 2°56.966 20.2344 0.031814 0.172159 42.633971
2009-09-17 07:39:38 51°19.391 2°56.985 20.2279 0.03202 0.173328 42.564323
2009-09-17 07:39:44 51°19.397 2°57.007 20.2278 0.033975 0.184014 42.529499
2009-09-17 07:39:49 51°19.401 2°57.027 20.2309 0.032123 0.173902 42.564323
2009-09-17 07:39:53 51°19.405 2°57.041 20.2311 0.032123 0.173902 42.564323
2009-09-17 07:39:58 51°19.41 2°57.06 20.2356 0.031917 0.172755 42.564323
2009-09-17 07:40:04 51°19.416 2°57.082 20.2351 0.031814 0.172176 42.529499
2009-09-17 07:40:09 51°19.421 2°57.101 20.2424 0.031814 0.172173 42.529499
2009-09-17 07:40:13 51°19.425 2°57.116 20.2452 0.031711 0.171609 42.529499
2009-09-17 07:40:18 51°19.43 2°57.135 20.2407 0.031711 0.171615 42.564323
2009-09-17 07:40:24 51°19.436 2°57.157 20.2423 0.031711 0.171615 42.564323
2009-09-17 07:40:29 51°19.441 2°57.176 20.241 0.031711 0.171615 42.599147
2009-09-17 07:40:33 51°19.445 2°57.191 20.2409 0.031608 0.171054 42.599147
2009-09-17 07:40:38 51°19.45 2°57.209 20.2407 0.031608 0.171054 42.564323
2009-09-17 07:40:44 51°19.456 2°57.232 20.2465 0.031608 0.171062 42.633971
2009-09-17 07:40:49 51°19.461 2°57.25 20.2452 0.031505 0.170524 42.633971
2009-09-17 07:40:53 51°19.465 2°57.265 20.2499 0.031505 0.170524 42.633971
2009-09-17 07:40:58 51°19.47 2°57.284 20.2395 0.031505 0.17053 42.564323
2009-09-17 07:41:04 51°19.476 2°57.306 20.2453 0.031505 0.170527 42.564323
2009-09-17 07:41:09 51°19.481 2°57.325 20.2437 0.031505 0.170533 42.599147
2009-09-17 07:41:13 51°19.485 2°57.34 20.2456 0.031505 0.17053 42.564323
2009-09-17 07:41:19 51°19.491 2°57.363 20.2465 0.031402 0.169975 42.599147
2009-09-17 07:41:24 51°19.496 2°57.381 20.2523 0.031402 0.169975 42.599147
2009-09-17 07:41:29 51°19.5 2°57.4 20.2458 0.031402 0.169969 42.599147
2009-09-17 07:41:34 51°19.506 2°57.419 20.2514 0.032329 0.175023 42.633971
2009-09-17 07:41:39 51°19.51 2°57.438 20.2502 0.031814 0.172234 42.633971
2009-09-17 07:41:44 51°19.516 2°57.456 20.2524 0.03202 0.173355 42.668795
2009-09-17 07:41:49 51°19.521 2°57.475 20.2511 0.031711 0.171664 41.867842
2009-09-17 07:41:54 51°19.526 2°57.494 20.2503 0.031711 0.171664 41.867842
2009-09-17 07:41:58 51°19.53 2°57.509 20.2539 0.031608 0.171091 42.11161
2009-09-17 07:42:04 51°19.536 2°57.532 20.2572 0.031505 0.17053 42.216082
2009-09-17 07:42:09 51°19.54 2°57.551 20.2614 0.031711 0.171682 42.250907
2009-09-17 07:42:14 51°19.545 2°57.57 20.2625 0.031608 0.171106 42.320555
2009-09-17 07:42:19 51°19.549 2°57.589 20.256 0.031505 0.170541 42.355379
2009-09-17 07:42:24 51°19.554 2°57.607 20.2631 0.031505 0.170541 42.355379
2009-09-17 07:42:29 51°19.559 2°57.626 20.2634 0.031505 0.170544 42.355379
2009-09-17 07:42:34 51°19.564 2°57.645 20.256 0.031402 0.16998 42.425027
2009-09-17 07:42:39 51°19.569 2°57.664 20.2555 0.031402 0.16998 42.390203
2009-09-17 07:42:44 51°19.574 2°57.683 20.2551 0.031608 0.171126 42.425027
2009-09-17 07:42:48 51°19.578 2°57.698 20.2614 0.031917 0.172802 42.425027
2009-09-17 07:42:53 51°19.583 2°57.716 20.2632 0.031917 0.172802 42.425027
2009-09-17 07:42:59 51°19.588 2°57.74 20.2556 0.03202 0.17339 42.355379
2009-09-17 07:43:04 51°19.594 2°57.757 20.2655 0.032534 0.176186 42.355379
2009-09-17 07:43:09 51°19.598 2°57.777 20.2573 0.03202 0.173393 42.390203
2009-09-17 07:43:13 51°19.603 2°57.791 20.2722 0.032123 0.173958 42.390203
2009-09-17 07:43:19 51°19.608 2°57.814 20.2738 0.031608 0.171129 42.390203
2009-09-17 07:43:24 51°19.613 2°57.833 20.271 0.031608 0.171129 42.390203
2009-09-17 07:43:29 51°19.618 2°57.851 20.264 0.031505 0.170573 42.425027
2009-09-17 07:43:33 51°19.622 2°57.866 20.2729 0.031402 0.169998 42.459851
2009-09-17 07:43:39 51°19.628 2°57.889 20.277 0.031402 0.169992 42.459851
2009-09-17 07:43:44 51°19.633 2°57.908 20.268 0.031402 0.170003 42.459851
2009-09-17 07:43:49 51°19.638 2°57.927 20.2726 0.0313 0.169451 42.425027
2009-09-17 07:43:53 51°19.642 2°57.942 20.2748 0.0313 0.169451 42.425027
2009-09-17 07:43:58 51°19.647 2°57.961 20.2713 0.0313 0.169445 42.459851
2009-09-17 07:44:04 51°19.652 2°57.984 20.2658 0.0313 0.169445 42.494675
2009-09-17 07:44:09 51°19.657 2°58.003 20.2706 0.032843 0.1779 42.459851
2009-09-17 07:44:13 51°19.659 2°58.019 20.2755 0.03202 0.17342 42.494675
2009-09-17 07:44:18 51°19.665 2°58.038 20.28 0.032123 0.173973 42.494675
2009-09-17 07:44:24 51°19.67 2°58.061 20.272 0.032123 0.173973 42.494675
2009-09-17 07:44:29 51°19.674 2°58.081 20.2738 0.031814 0.172281 42.529499
2009-09-17 07:44:34 51°19.679 2°58.1 20.2842 0.031711 0.171705 42.529499
2009-09-17 07:44:39 51°19.683 2°58.119 20.2751 0.032123 0.173949 42.599147
2009-09-17 07:44:44 51°19.687 2°58.139 20.2832 0.031711 0.171708 42.633971
2009-09-17 07:44:49 51°19.692 2°58.159 20.2841 0.031608 0.171143 42.633971
2009-09-17 07:44:54 51°19.696 2°58.178 20.2779 0.031608 0.171143 42.633971
2009-09-17 07:44:59 51°19.701 2°58.197 20.285 0.031608 0.17114 42.633971
2009-09-17 07:45:04 51°19.705 2°58.218 20.2747 0.031608 0.171169 42.633971
2009-09-17 07:45:09 51°19.71 2°58.237 20.2842 0.031608 0.171172 42.564323
2009-09-17 07:45:14 51°19.714 2°58.257 20.2885 0.031505 0.170602 42.633971
2009-09-17 07:45:19 51°19.718 2°58.276 20.2834 0.031402 0.170032 42.599147
2009-09-17 07:45:24 51°19.722 2°58.296 20.2799 0.031402 0.170032 42.599147
2009-09-17 07:45:28 51°19.726 2°58.312 20.2888 0.031402 0.170026 42.599147
2009-09-17 07:45:34 51°19.731 2°58.336 20.2899 0.031505 0.170602 42.599147
2009-09-17 07:45:39 51°19.735 2°58.355 20.285 0.031402 0.170029 42.564323
2009-09-17 07:45:44 51°19.739 2°58.374 20.2853 0.031402 0.170029 42.599147
2009-09-17 07:45:49 51°19.743 2°58.394 20.285 0.031402 0.170026 42.633971
2009-09-17 07:45:53 51°19.747 2°58.409 20.2928 0.031402 0.170026 42.633971
2009-09-17 07:45:59 51°19.752 2°58.433 20.2867 0.0313 0.169471 42.599147
2009-09-17 07:46:04 51°19.757 2°58.452 20.2966 0.0313 0.169488 42.633971
2009-09-17 07:46:09 51°19.76 2°58.472 20.2873 0.0313 0.169482 42.668795
2009-09-17 07:46:13 51°19.764 2°58.488 20.287 0.0313 0.169479 42.668795
2009-09-17 07:46:18 51°19.769 2°58.507 20.2878 0.031711 0.171746 42.668795
2009-09-17 07:46:24 51°19.773 2°58.531 20.2874 0.031711 0.171746 42.668795
2009-09-17 07:46:29 51°19.778 2°58.55 20.2963 0.031402 0.170049 42.599147
2009-09-17 07:46:33 51°19.78 2°58.567 20.2986 0.031402 0.170041 42.668795
2009-09-17 07:46:38 51°19.786 2°58.586 20.3045 0.0313 0.169482 42.668795
2009-09-17 07:46:44 51°19.79 2°58.61 20.2985 0.031814 0.172299 42.668795
2009-09-17 07:46:49 51°19.794 2°58.629 20.2991 0.032123 0.174014 42.633971
2009-09-17 07:46:53 51°19.798 2°58.645 20.2969 0.032123 0.174014 42.633971
2009-09-17 07:46:58 51°19.802 2°58.664 20.2966 0.031917 0.172887 42.633971
2009-09-17 07:47:04 51°19.807 2°58.688 20.3031 0.032123 0.174005 42.633971
2009-09-17 07:47:09 51°19.811 2°58.708 20.2975 0.031814 0.17231 42.703619
2009-09-17 07:47:13 51°19.815 2°58.724 20.3111 0.031711 0.171728 42.738443
2009-09-17 07:47:18 51°19.819 2°58.744 20.3109 0.031711 0.171725 41.310657
2009-09-17 07:47:24 51°19.824 2°58.767 20.2999 0.031711 0.171725 41.310657
2009-09-17 07:47:29 51°19.829 2°58.787 20.3081 0.032123 0.173979 41.798194
2009-09-17 07:47:33 51°19.831 2°58.803 20.3037 0.031917 0.172887 42.007138
2009-09-17 07:47:38 51°19.837 2°58.822 20.3184 0.032637 0.176823 42.11161
2009-09-17 07:47:44 51°19.841 2°58.846 20.3 0.031814 0.172325 42.181258
2009-09-17 07:47:49 51°19.847 2°58.865 20.31 0.031608 0.171175 42.181258
2009-09-17 07:47:54 51°19.85 2°58.886 20.3041 0.031608 0.171175 42.181258
2009-09-17 07:47:59 51°19.856 2°58.905 20.3109 0.031608 0.171172 42.216082
2009-09-17 07:48:04 51°19.861 2°58.924 20.3119 0.031505 0.170614 42.250907
2009-09-17 07:48:09 51°19.865 2°58.944 20.3095 0.031711 0.171766 42.216082
2009-09-17 07:48:13 51°19.868 2°58.959 20.2986 0.031608 0.171181 42.216082
2009-09-17 07:48:19 51°19.875 2°58.982 20.3094 0.03274 0.177389 42.285731
2009-09-17 07:48:24 51°19.879 2°59.001 20.3057 0.03274 0.177389 42.285731
2009-09-17 07:48:29 51°19.885 2°59.02 20.3164 0.031814 0.172328 42.320555
2009-09-17 07:48:34 51°19.889 2°59.04 20.3167 0.031814 0.172331 42.320555
2009-09-17 07:48:38 51°19.893 2°59.055 20.3179 0.031814 0.172319 42.355379
2009-09-17 07:48:44 51°19.899 2°59.079 20.3112 0.031711 0.171792 42.355379
2009-09-17 07:48:49 51°19.904 2°59.097 20.3116 0.031711 0.171769 42.390203
2009-09-17 07:48:53 51°19.908 2°59.113 20.3168 0.031711 0.171769 42.390203
2009-09-17 07:48:58 51°19.913 2°59.132 20.3175 0.031505 0.17064 42.425027
2009-09-17 07:49:04 51°19.919 2°59.156 20.3296 0.033049 0.179084 42.390203
2009-09-17 07:49:09 51°19.923 2°59.175 20.3129 0.031711 0.171786 42.425027
2009-09-17 07:49:13 51°19.929 2°59.189 20.3223 0.032637 0.176841 42.390203
2009-09-17 07:49:18 51°19.932 2°59.209 20.3205 0.031608 0.171222 42.425027
2009-09-17 07:49:24 51°19.939 2°59.232 20.3272 0.031608 0.171222 42.425027
2009-09-17 07:49:29 51°19.944 2°59.252 20.3224 0.031505 0.17066 42.425027
2009-09-17 07:49:33 51°19.948 2°59.266 20.3259 0.031402 0.170084 42.494675
2009-09-17 07:49:39 51°19.954 2°59.29 20.3218 0.031402 0.170081 42.494675
2009-09-17 07:49:44 51°19.959 2°59.309 20.3263 0.0313 0.169519 42.564323
2009-09-17 07:49:49 51°19.964 2°59.328 20.3317 0.0313 0.169514 42.529499
2009-09-17 07:49:53 51°19.968 2°59.344 20.3272 0.0313 0.169514 42.529499
2009-09-17 07:49:59 51°19.974 2°59.367 20.3242 0.0313 0.169519 42.564323
2009-09-17 07:50:04 51°19.979 2°59.386 20.33 0.031197 0.168958 42.668795
2009-09-17 07:50:09 51°19.984 2°59.405 20.3358 0.031197 0.168955 42.668795
2009-09-17 07:50:13 51°19.987 2°59.422 20.3268 0.031197 0.168992 42.668795
2009-09-17 07:50:19 51°19.994 2°59.444 20.3318 0.031197 0.168967 42.703619
2009-09-17 07:50:24 51°19.998 2°59.464 20.3243 0.031197 0.168967 42.703619
2009-09-17 07:50:29 51°20.004 2°59.483 20.3279 0.031197 0.168964 42.703619
2009-09-17 07:50:33 51°20.007 2°59.498 20.3353 0.031197 0.168975 42.668795
2009-09-17 07:50:39 51°20.013 2°59.521 20.3256 0.031094 0.168411 42.703619
2009-09-17 07:50:44 51°20.019 2°59.54 20.3404 0.032226 0.174624 42.703619
2009-09-17 07:50:49 51°20.023 2°59.56 20.3401 0.031505 0.170706 42.703619
2009-09-17 07:50:54 51°20.028 2°59.579 20.3429 0.031505 0.170706 42.703619
2009-09-17 07:50:59 51°20.033 2°59.598 20.3298 0.031402 0.170121 42.738443
2009-09-17 07:51:04 51°20.038 2°59.618 20.333 0.031814 0.172372 42.808091
2009-09-17 07:51:09 51°20.043 2°59.637 20.3287 0.032637 0.176865 42.773267
2009-09-17 07:51:14 51°20.047 2°59.657 20.3399 0.031917 0.172957 42.808091
2009-09-17 07:51:19 51°20.052 2°59.676 20.3376 0.031814 0.172392 42.808091
2009-09-17 07:51:24 51°20.056 2°59.696 20.3383 0.031814 0.172392 42.808091
2009-09-17 07:51:29 51°20.062 2°59.714 20.3415 0.031917 0.172937 42.842915
2009-09-17 07:51:34 51°20.066 2°59.734 20.3378 0.031711 0.171827 42.842915
2009-09-17 07:51:39 51°20.072 2°59.753 20.3387 0.031608 0.171254 42.912564
2009-09-17 07:51:44 51°20.077 2°59.772 20.3378 0.031505 0.170689 42.912564
2009-09-17 07:51:49 51°20.082 2°59.791 20.3437 0.031402 0.17013 42.947388
2009-09-17 07:51:54 51°20.087 2°59.81 20.3449 0.031402 0.17013 42.947388
2009-09-17 07:51:59 51°20.092 2°59.829 20.3446 0.031402 0.170139 42.912564
2009-09-17 07:52:04 51°20.097 2°59.849 20.3478 0.031917 0.172957 42.947388
2009-09-17 07:52:09 51°20.101 2°59.868 20.3418 0.031814 0.172398 42.912564
2009-09-17 07:52:14 51°20.106 2°59.888 20.3537 0.031814 0.172395 42.947388
2009-09-17 07:52:19 51°20.111 2°59.906 20.3441 0.031505 0.170697 42.982212
2009-09-17 07:52:24 51°20.115 2°59.926 20.351 0.031505 0.170697 42.982212
2009-09-17 07:52:29 51°20.121 2°59.944 20.3538 0.031505 0.170689 42.982212
2009-09-17 07:52:33 51°20.124 2°59.96 20.348 0.031402 0.170124 43.05186
2009-09-17 07:52:39 51°20.131 2°59.982 20.3499 0.031402 0.170127 42.808091
2009-09-17 07:52:44 51°20.136 3°0.002 20.3467 0.0313 0.169577 42.877739
2009-09-17 07:52:49 51°20.141 3°0.021 20.3524 0.032226 0.174656 42.982212
2009-09-17 07:52:53 51°20.145 3°0.036 20.3508 0.032226 0.174656 42.982212
2009-09-17 07:52:59 51°20.151 3°0.059 20.3532 0.031608 0.171277 43.017036
2009-09-17 07:53:04 51°20.155 3°0.079 20.3568 0.031711 0.171839 43.017036
2009-09-17 07:53:09 51°20.161 3°0.098 20.3491 0.031505 0.170706 43.05186
2009-09-17 07:53:13 51°20.165 3°0.113 20.3607 0.032226 0.174642 43.086684
2009-09-17 07:53:18 51°20.17 3°0.132 20.3605 0.033769 0.183096 43.086684
2009-09-17 07:53:24 51°20.176 3°0.155 20.3568 0.033769 0.183096 43.086684
2009-09-17 07:53:29 51°20.181 3°0.174 20.3532 0.031917 0.172975 43.156332
2009-09-17 07:53:33 51°20.186 3°0.189 20.3647 0.031711 0.171824 43.22598
2009-09-17 07:53:38 51°20.19 3°0.209 20.3619 0.031711 0.171842 43.22598
2009-09-17 07:53:44 51°20.197 3°0.232 20.3676 0.031711 0.171836 43.22598
2009-09-17 07:53:49 51°20.201 3°0.251 20.3606 0.031608 0.171268 43.191156
2009-09-17 07:53:53 51°20.205 3°0.267 20.3626 0.031608 0.171268 43.191156
2009-09-17 07:53:58 51°20.21 3°0.286 20.3706 0.031505 0.170697 43.260804
2009-09-17 07:54:04 51°20.215 3°0.309 20.3718 0.031402 0.170139 43.191156
2009-09-17 07:54:09 51°20.22 3°0.327 20.3683 0.031402 0.170144 43.295628
2009-09-17 07:54:14 51°20.225 3°0.347 20.3757 0.031917 0.172993 43.330452
2009-09-17 07:54:19 51°20.229 3°0.365 20.3711 0.032123 0.174106 43.22598
2009-09-17 07:54:24 51°20.234 3°0.384 20.3724 0.032123 0.174106 43.22598
2009-09-17 07:54:29 51°20.239 3°0.404 20.3695 0.031505 0.170738 43.191156
2009-09-17 07:54:34 51°20.243 3°0.423 20.3695 0.032946 0.178627 43.191156
2009-09-17 07:54:39 51°20.248 3°0.442 20.3744 0.032123 0.174135 43.22598
2009-09-17 07:54:44 51°20.253 3°0.462 20.3675 0.031402 0.170165 43.260804
2009-09-17 07:54:49 51°20.259 3°0.481 20.3691 0.031402 0.170156 43.260804
2009-09-17 07:54:54 51°20.263 3°0.501 20.3693 0.031402 0.170156 43.260804
2009-09-17 07:54:59 51°20.269 3°0.519 20.3675 0.031711 0.171839 43.295628
2009-09-17 07:55:04 51°20.273 3°0.54 20.3747 0.031608 0.171306 43.330452
2009-09-17 07:55:09 51°20.279 3°0.558 20.3728 0.032226 0.174677 43.295628
2009-09-17 07:55:13 51°20.283 3°0.574 20.3713 0.031505 0.170744 43.330452
2009-09-17 07:55:19 51°20.289 3°0.597 20.3767 0.031402 0.170173 43.365276
2009-09-17 07:55:24 51°20.294 3°0.617 20.3759 0.031402 0.170173 43.365276
2009-09-17 07:55:29 51°20.298 3°0.637 20.3783 0.0313 0.169614 43.330452
2009-09-17 07:55:33 51°20.302 3°0.652 20.3759 0.032226 0.174686 43.365276
2009-09-17 07:55:38 51°20.307 3°0.672 20.3738 0.031505 0.170752 43.4001
2009-09-17 07:55:44 51°20.314 3°0.694 20.3829 0.031402 0.17019 43.469748
2009-09-17 07:55:49 51°20.318 3°0.714 20.3846 0.0313 0.169626 43.4001
2009-09-17 07:55:54 51°20.323 3°0.734 20.3849 0.0313 0.169626 43.4001
2009-09-17 07:55:58 51°20.327 3°0.749 20.3751 0.0313 0.169626 43.469748
2009-09-17 07:56:04 51°20.332 3°0.773 20.3831 0.031402 0.170202 43.4001
2009-09-17 07:56:09 51°20.338 3°0.791 20.3827 0.031608 0.17132 43.609045
2009-09-17 07:56:14 51°20.343 3°0.811 20.3804 0.031402 0.170202 43.05186
2009-09-17 07:56:18 51°20.347 3°0.826 20.3844 0.033666 0.182604 42.668795
2009-09-17 07:56:24 51°20.352 3°0.85 20.3806 0.033666 0.182604 42.668795
2009-09-17 07:56:29 51°20.358 3°0.868 20.3837 0.031711 0.171918 42.912564
2009-09-17 07:56:34 51°20.363 3°0.888 20.389 0.032329 0.175297 43.086684
2009-09-17 07:56:38 51°20.367 3°0.903 20.3901 0.031608 0.171347 43.121508
2009-09-17 07:56:44 51°20.374 3°0.926 20.3828 0.032637 0.17695 43.156332
2009-09-17 07:56:49 51°20.378 3°0.946 20.3855 0.031608 0.171315 43.260804
2009-09-17 07:56:54 51°20.383 3°0.966 20.3913 0.031608 0.171315 43.260804
2009-09-17 07:56:58 51°20.387 3°0.98 20.392 0.032637 0.176959 43.22598
2009-09-17 07:57:04 51°20.392 3°1.004 20.3859 0.031917 0.173034 43.260804
2009-09-17 07:57:09 51°20.397 3°1.022 20.3938 0.031814 0.172457 43.295628
2009-09-17 07:57:14 51°20.402 3°1.041 20.4013 0.031814 0.172457 43.330452
2009-09-17 07:57:19 51°20.407 3°1.06 20.391 0.031711 0.171894 43.643869
2009-09-17 07:57:24 51°20.412 3°1.079 20.397 0.031711 0.171894 43.643869
2009-09-17 07:57:29 51°20.418 3°1.098 20.3973 0.031608 0.171335 43.713517
2009-09-17 07:57:34 51°20.422 3°1.118 20.3911 0.031505 0.17079 43.748341
2009-09-17 07:57:39 51°20.428 3°1.137 20.4012 0.031505 0.17079 43.783165
2009-09-17 07:57:44 51°20.432 3°1.157 20.4066 0.031505 0.170802 43.295628
2009-09-17 07:57:49 51°20.436 3°1.176 20.3968 0.032226 0.17474 43.260804
2009-09-17 07:57:54 51°20.441 3°1.196 20.3959 0.032226 0.17474 43.260804
2009-09-17 07:57:59 51°20.447 3°1.215 20.3989 0.031608 0.171376 43.191156
2009-09-17 07:58:04 51°20.451 3°1.234 20.4009 0.031505 0.170796 43.191156
2009-09-17 07:58:09 51°20.456 3°1.254 20.3939 0.031402 0.170231 43.121508
2009-09-17 07:58:14 51°20.461 3°1.273 20.3964 0.031917 0.173042 43.121508
2009-09-17 07:58:19 51°20.466 3°1.293 20.4046 0.031505 0.170787 43.017036
2009-09-17 07:58:24 51°20.47 3°1.313 20.4065 0.031505 0.170787 43.017036
2009-09-17 07:58:29 51°20.475 3°1.332 20.4022 0.031505 0.170784 42.494675
2009-09-17 07:58:34 51°20.48 3°1.35 20.4054 0.031402 0.170228 42.912564
2009-09-17 07:58:39 51°20.485 3°1.37 20.3929 0.031402 0.170237 43.017036
2009-09-17 07:58:44 51°20.49 3°1.388 20.406 0.033358 0.180968 43.156332
2009-09-17 07:58:49 51°20.495 3°1.407 20.4038 0.031917 0.173072 43.191156
2009-09-17 07:58:54 51°20.5 3°1.427 20.4111 0.031917 0.173072 43.191156
2009-09-17 07:58:59 51°20.505 3°1.445 20.4031 0.031814 0.172477 43.22598
2009-09-17 07:59:04 51°20.51 3°1.464 20.4064 0.031608 0.171355 43.260804
2009-09-17 07:59:09 51°20.515 3°1.483 20.4099 0.031608 0.171352 43.260804
2009-09-17 07:59:13 51°20.519 3°1.498 20.4055 0.031505 0.170787 43.191156
2009-09-17 07:59:19 51°20.525 3°1.521 20.4073 0.03274 0.177567 43.295628
2009-09-17 07:59:24 51°20.53 3°1.54 20.4111 0.03274 0.177567 43.295628
2009-09-17 07:59:29 51°20.535 3°1.559 20.4134 0.031608 0.171384 43.295628
2009-09-17 07:59:33 51°20.538 3°1.574 20.416 0.031814 0.172492 43.330452
2009-09-17 07:59:39 51°20.543 3°1.598 20.4178 0.031505 0.170802 43.365276
2009-09-17 07:59:44 51°20.547 3°1.618 20.4146 0.031608 0.171376 43.365276
2009-09-17 07:59:49 51°20.551 3°1.637 20.412 0.033872 0.183767 43.4001
2009-09-17 07:59:53 51°20.554 3°1.653 20.4167 0.033872 0.183767 43.4001
2009-09-17 07:59:58 51°20.557 3°1.673 20.4178 0.032329 0.175353 43.434924
2009-09-17 08:00:04 51°20.56 3°1.698 20.4221 0.033358 0.180993 43.434924
2009-09-17 08:00:09 51°20.564 3°1.717 20.414 0.032226 0.17479 43.469748
2009-09-17 08:00:14 51°20.566 3°1.737 20.4203 0.031608 0.171393 43.434924
2009-09-17 08:00:19 51°20.569 3°1.758 20.4181 0.032226 0.174745 43.609045
2009-09-17 08:00:24 51°20.572 3°1.778 20.4282 0.032226 0.174745 43.609045
2009-09-17 08:00:29 51°20.575 3°1.799 20.4225 0.032329 0.175326 43.539397
2009-09-17 08:00:34 51°20.578 3°1.819 20.4196 0.033049 0.179255 43.609045
2009-09-17 08:00:39 51°20.581 3°1.84 20.4231 0.03202 0.173632 43.539397
2009-09-17 08:00:44 51°20.584 3°1.86 20.4296 0.032329 0.175314 43.643869
2009-09-17 08:00:49 51°20.585 3°1.882 20.4182 0.031917 0.173069 43.713517
2009-09-17 08:00:54 51°20.59 3°1.902 20.4234 0.031917 0.173069 43.713517
2009-09-17 08:00:59 51°20.591 3°1.923 20.4251 0.03202 0.173629 43.783165
2009-09-17 08:01:04 51°20.595 3°1.944 20.4248 0.032226 0.174748 43.783165
2009-09-17 08:01:09 51°20.597 3°1.965 20.4322 0.031917 0.173066 43.852813
2009-09-17 08:01:14 51°20.601 3°1.986 20.4294 0.031814 0.1725 43.852813
2009-09-17 08:01:19 51°20.603 3°2.007 20.4324 0.032123 0.174186 43.887637
2009-09-17 08:01:24 51°20.606 3°2.027 20.4343 0.032123 0.174186 43.887637
2009-09-17 08:01:28 51°20.607 3°2.044 20.4351 0.031814 0.172515 43.852813
2009-09-17 08:01:34 51°20.61 3°2.069 20.4291 0.03202 0.173643 43.887637
2009-09-17 08:01:39 51°20.613 3°2.09 20.435 0.031814 0.172518 43.922461
2009-09-17 08:01:44 51°20.615 3°2.11 20.4367 0.031917 0.173063 43.887637
2009-09-17 08:01:49 51°20.617 3°2.131 20.4401 0.031814 0.172503 43.922461
2009-09-17 08:01:53 51°20.619 3°2.148 20.4403 0.031814 0.172503 43.922461
2009-09-17 08:01:59 51°20.622 3°2.173 20.4349 0.031711 0.171947 43.957285
2009-09-17 08:02:04 51°20.624 3°2.194 20.4398 0.031608 0.171387 44.026933
2009-09-17 08:02:09 51°20.626 3°2.215 20.4443 0.031608 0.171387 44.026933
2009-09-17 08:02:13 51°20.628 3°2.232 20.4381 0.03274 0.177576 44.061757
2009-09-17 08:02:18 51°20.631 3°2.253 20.4386 0.03202 0.173676 44.096581
2009-09-17 08:02:24 51°20.634 3°2.278 20.4347 0.03202 0.173676 44.096581
2009-09-17 08:02:29 51°20.637 3°2.299 20.4445 0.031814 0.172533 44.166229
2009-09-17 08:02:33 51°20.638 3°2.316 20.4368 0.031814 0.172544 44.096581
2009-09-17 08:02:38 51°20.641 3°2.337 20.4429 0.031711 0.17197 44.166229
2009-09-17 08:02:44 51°20.644 3°2.362 20.4416 0.031608 0.171402 44.166229
2009-09-17 08:02:49 51°20.646 3°2.383 20.4504 0.031505 0.170834 44.235878
2009-09-17 08:02:53 51°20.648 3°2.4 20.4444 0.031505 0.170834 44.235878
2009-09-17 08:02:58 51°20.652 3°2.421 20.4527 0.031505 0.170836 44.235878
2009-09-17 08:03:04 51°20.654 3°2.446 20.4496 0.031608 0.171442 44.235878
2009-09-17 08:03:09 51°20.658 3°2.467 20.4482 0.031505 0.170868 44.305526
2009-09-17 08:03:13 51°20.66 3°2.483 20.4449 0.032329 0.175401 44.235878
2009-09-17 08:03:18 51°20.663 3°2.504 20.4447 0.033975 0.18442 44.34035
2009-09-17 08:03:24 51°20.666 3°2.529 20.451 0.033975 0.18442 44.34035
2009-09-17 08:03:29 51°20.668 3°2.55 20.4515 0.031917 0.17316 44.409998
2009-09-17 08:03:34 51°20.67 3°2.571 20.4467 0.031711 0.172014 44.479646
2009-09-17 08:03:39 51°20.673 3°2.591 20.4491 0.031814 0.172568 44.479646
2009-09-17 08:03:44 51°20.675 3°2.613 20.4582 0.031814 0.17255 44.51447
2009-09-17 08:03:49 51°20.679 3°2.633 20.4561 0.032123 0.174254 44.479646
2009-09-17 08:03:54 51°20.681 3°2.654 20.4467 0.032123 0.174254 44.479646
2009-09-17 08:03:59 51°20.684 3°2.675 20.4574 0.031608 0.171431 44.549294
2009-09-17 08:04:04 51°20.686 3°2.696 20.461 0.031505 0.170865 44.51447
2009-09-17 08:04:09 51°20.689 3°2.717 20.4627 0.031505 0.170863 44.584118
2009-09-17 08:04:14 51°20.692 3°2.737 20.4621 0.031402 0.170309 44.618942
2009-09-17 08:04:19 51°20.695 3°2.758 20.4626 0.031402 0.170309 44.549294
2009-09-17 08:04:24 51°20.697 3°2.779 20.4614 0.031402 0.170309 44.549294
2009-09-17 08:04:29 51°20.7 3°2.8 20.4529 0.031505 0.17088 44.409998
2009-09-17 08:04:34 51°20.702 3°2.821 20.4607 0.031402 0.170326 43.713517
2009-09-17 08:04:38 51°20.705 3°2.837 20.4651 0.033666 0.182745 44.375174
2009-09-17 08:04:44 51°20.708 3°2.862 20.4488 0.032226 0.174838 44.51447
2009-09-17 08:04:49 51°20.712 3°2.883 20.4716 0.033255 0.180502 44.584118
2009-09-17 08:04:54 51°20.713 3°2.904 20.459 0.033255 0.180502 44.584118
2009-09-17 08:04:58 51°20.717 3°2.919 20.4744 0.032534 0.176543 44.68859
2009-09-17 08:05:04 51°20.72 3°2.945 20.4591 0.032843 0.178234 44.793062
2009-09-17 08:05:09 51°20.723 3°2.965 20.4651 0.031917 0.17316 44.827887
2009-09-17 08:05:14 51°20.726 3°2.986 20.4651 0.03274 0.177655 44.967183
2009-09-17 08:05:18 51°20.728 3°3.003 20.4633 0.031814 0.172583 44.967183
2009-09-17 08:05:24 51°20.733 3°3.027 20.4631 0.031814 0.172583 44.967183
2009-09-17 08:05:29 51°20.735 3°3.048 20.4667 0.031711 0.172026 44.967183
2009-09-17 08:05:34 51°20.738 3°3.068 20.4653 0.031608 0.171451 45.002007
2009-09-17 08:05:39 51°20.741 3°3.089 20.468 0.031711 0.172046 44.967183